VIR982 KLAX-EGLL

Flight info

Callsign VIR982
Flight time N/A
Altitude 33000
Route DOTSS2 CLEEE DCT EED J236 TBC DCT JNC DCT EKR DCT DDY/N0498F350 DCT GCC DCT DIK Q945 SEGAP DCT KAIIN DCT 56N090W 60N080W DCT BEPEG/M085F370 DCT EPMAN DCT 67N050W 67N040W 65N030W 62N020W DCT ERAKA/N0487F370 DCT ETSOM DCT AKOMU DCT VAMEB DCT NUGRA
Aircraft A35K/H-SDE2E3GHIJ3J4J5LM1ORWXY/LB1D1

Departure

Time 2026-04-23 03:15
Airport Los Angeles International Airport (KLAX)

Arrival

Time N/A
Airport London Heathrow Airport (EGLL)
Time Latitude Longitude Altitude Speed Heading
2026-04-23 02:11 33.94099 -118.41088 101 ft 0 kts 83°
2026-04-23 03:00 33.94097 -118.41109 100 ft 4 kts 84°
2026-04-23 03:00 33.94094 -118.41142 98 ft 4 kts 85°
2026-04-23 03:00 33.94091 -118.41169 97 ft 4 kts 95°
2026-04-23 03:01 33.94102 -118.41191 99 ft 4 kts 157°
2026-04-23 03:01 33.94128 -118.41200 102 ft 4 kts 172°
2026-04-23 03:01 33.94136 -118.41201 105 ft 0 kts 173°
2026-04-23 03:05 33.94120 -118.41198 98 ft 6 kts 172°
2026-04-23 03:05 33.94054 -118.41188 100 ft 13 kts 173°
2026-04-23 03:06 33.93943 -118.41173 99 ft 18 kts 173°
2026-04-23 03:06 33.93820 -118.41155 101 ft 16 kts 171°
2026-04-23 03:06 33.93768 -118.41081 103 ft 11 kts 85°
2026-04-23 03:06 33.93776 -118.40984 100 ft 12 kts 82°
2026-04-23 03:07 33.93787 -118.40876 100 ft 14 kts 82°
2026-04-23 03:07 33.93800 -118.40759 103 ft 15 kts 82°
2026-04-23 03:07 33.93814 -118.40631 103 ft 16 kts 83°
2026-04-23 03:07 33.93828 -118.40493 101 ft 17 kts 83°
2026-04-23 03:08 33.93843 -118.40348 103 ft 18 kts 83°
2026-04-23 03:08 33.93858 -118.40195 103 ft 19 kts 83°
2026-04-23 03:08 33.93874 -118.40037 102 ft 20 kts 83°
2026-04-23 03:08 33.93891 -118.39868 103 ft 21 kts 83°
2026-04-23 03:09 33.93910 -118.39686 102 ft 23 kts 82°
2026-04-23 03:09 33.93930 -118.39494 101 ft 24 kts 83°
2026-04-23 03:09 33.93950 -118.39302 101 ft 23 kts 83°
2026-04-23 03:09 33.93971 -118.39105 101 ft 24 kts 83°
2026-04-23 03:10 33.93991 -118.38902 100 ft 25 kts 83°
2026-04-23 03:10 33.94013 -118.38696 103 ft 25 kts 83°
2026-04-23 03:10 33.94033 -118.38484 102 ft 26 kts 83°
2026-04-23 03:10 33.94040 -118.38422 104 ft 0 kts 83°
2026-04-23 03:11 33.94040 -118.38419 104 ft 1 kts 83°
2026-04-23 03:11 33.94042 -118.38404 103 ft 3 kts 83°
2026-04-23 03:11 33.94045 -118.38374 101 ft 5 kts 83°
2026-04-23 03:11 33.94052 -118.38309 104 ft 10 kts 83°
2026-04-23 03:12 33.94062 -118.38207 100 ft 15 kts 83°
2026-04-23 03:12 33.94074 -118.38091 100 ft 7 kts 83°
2026-04-23 03:12 33.94074 -118.38027 99 ft 7 kts 107°
2026-04-23 03:12 33.94073 -118.38025 99 ft 0 kts 110°
2026-04-23 03:13 33.94071 -118.38021 99 ft 2 kts 116°
2026-04-23 03:13 33.94042 -118.37999 100 ft 8 kts 163°
2026-04-23 03:13 33.93987 -118.38033 103 ft 10 kts 230°
2026-04-23 03:13 33.93975 -118.38102 100 ft 8 kts 265°
2026-04-23 03:14 33.93955 -118.38302 104 ft 51 kts 263°
2026-04-23 03:14 33.93889 -118.38959 101 ft 107 kts 263°
2026-04-23 03:14 33.93776 -118.40055 108 ft 155 kts 263°
2026-04-23 03:14 33.93641 -118.41382 530 ft 160 kts 263°
2026-04-23 03:15 33.93514 -118.42723 1146 ft 161 kts 265°
2026-04-23 03:15 33.93376 -118.44129 1528 ft 180 kts 264°
2026-04-23 03:15 33.93125 -118.45703 1719 ft 205 kts 251°
2026-04-23 03:15 33.92353 -118.47234 2015 ft 222 kts 235°
2026-04-23 03:16 33.91357 -118.48744 2250 ft 243 kts 234°
2026-04-23 03:16 33.90263 -118.50353 2750 ft 252 kts 233°
2026-04-23 03:16 33.87914 -118.53629 3892 ft 264 kts 231°
2026-04-23 03:17 33.86559 -118.55146 4520 ft 269 kts 215°
2026-04-23 03:17 33.84798 -118.55924 5124 ft 275 kts 187°
2026-04-23 03:17 33.82883 -118.55737 5748 ft 278 kts 169°
2026-04-23 03:17 33.80975 -118.55210 6315 ft 284 kts 168°
2026-04-23 03:18 33.79059 -118.54658 6866 ft 288 kts 168°
2026-04-23 03:18 33.77101 -118.54105 7484 ft 289 kts 169°
2026-04-23 03:18 33.75137 -118.53562 8083 ft 292 kts 170°
2026-04-23 03:18 33.73136 -118.53015 8649 ft 296 kts 171°
2026-04-23 03:19 33.71143 -118.52259 9162 ft 306 kts 156°
2026-04-23 03:19 33.69480 -118.50624 9688 ft 317 kts 127°
2026-04-23 03:19 33.68489 -118.48243 10196 ft 323 kts 110°
2026-04-23 03:19 33.67735 -118.45672 10430 ft 338 kts 109°
2026-04-23 03:20 33.66958 -118.42925 10621 ft 354 kts 109°
2026-04-23 03:20 33.66136 -118.40068 10846 ft 369 kts 109°
2026-04-23 03:20 33.65269 -118.37102 11051 ft 383 kts 109°
2026-04-23 03:20 33.64544 -118.33957 11242 ft 397 kts 97°
2026-04-23 03:21 33.64398 -118.30603 11453 ft 408 kts 88°
2026-04-23 03:21 33.64413 -118.27189 11638 ft 420 kts 88°
2026-04-23 03:21 33.64438 -118.23646 11991 ft 427 kts 88°
2026-04-23 03:21 33.64453 -118.20063 12416 ft 431 kts 88°
2026-04-23 03:22 33.64461 -118.16439 12845 ft 436 kts 88°
2026-04-23 03:22 33.64465 -118.12783 13277 ft 440 kts 88°
2026-04-23 03:22 33.64465 -118.09096 13699 ft 444 kts 88°
2026-04-23 03:22 33.64464 -118.05365 14109 ft 448 kts 88°
2026-04-23 03:23 33.64460 -118.01666 14502 ft 451 kts 88°
2026-04-23 03:23 33.64455 -117.97885 14903 ft 454 kts 89°
2026-04-23 03:23 33.64449 -117.94089 15295 ft 457 kts 89°
2026-04-23 03:23 33.64441 -117.90251 15716 ft 460 kts 89°
2026-04-23 03:24 33.64432 -117.86403 16118 ft 463 kts 89°
2026-04-23 03:24 33.64425 -117.82518 16504 ft 467 kts 89°
2026-04-23 03:24 33.64655 -117.78623 16891 ft 468 kts 79°
2026-04-23 03:24 33.65301 -117.74775 17312 ft 470 kts 75°
2026-04-23 03:25 33.66034 -117.70992 17694 ft 473 kts 75°
2026-04-23 03:25 33.66790 -117.67132 18068 ft 477 kts 75°
2026-04-23 03:25 33.67546 -117.63241 18445 ft 480 kts 75°
2026-04-23 03:25 33.68302 -117.59325 18800 ft 482 kts 75°
2026-04-23 03:26 33.69060 -117.55379 19150 ft 485 kts 75°
2026-04-23 03:26 33.69820 -117.51419 19510 ft 487 kts 75°
2026-04-23 03:26 33.70581 -117.47438 19852 ft 490 kts 75°
2026-04-23 03:26 33.71333 -117.43488 20137 ft 493 kts 75°
2026-04-23 03:27 33.72099 -117.39459 20446 ft 496 kts 75°
2026-04-23 03:27 33.72869 -117.35396 20790 ft 499 kts 75°
2026-04-23 03:27 33.73641 -117.31321 21138 ft 501 kts 75°
2026-04-23 03:27 33.74417 -117.27213 21485 ft 504 kts 75°
2026-04-23 03:28 33.74999 -117.23048 21792 ft 508 kts 84°
2026-04-23 03:28 33.75081 -117.18789 22115 ft 511 kts 91°
2026-04-23 03:28 33.75000 -117.14563 22506 ft 513 kts 91°
2026-04-23 03:28 33.74899 -117.10264 22866 ft 516 kts 91°
2026-04-23 03:29 33.74801 -117.05943 23202 ft 518 kts 91°
2026-04-23 03:29 33.74704 -117.01589 23526 ft 521 kts 91°
2026-04-23 03:29 33.74608 -116.97224 23799 ft 524 kts 91°
2026-04-23 03:29 33.74516 -116.92875 24084 ft 526 kts 91°
2026-04-23 03:30 33.74417 -116.88480 24355 ft 528 kts 91°
2026-04-23 03:30 33.74316 -116.84053 24638 ft 530 kts 91°
2026-04-23 03:30 33.74213 -116.79619 24936 ft 532 kts 91°
2026-04-23 03:30 33.74111 -116.75162 25224 ft 534 kts 91°
2026-04-23 03:31 33.74005 -116.70688 25483 ft 536 kts 91°
2026-04-23 03:31 33.73898 -116.66192 25771 ft 538 kts 91°
2026-04-23 03:31 33.73789 -116.61687 26006 ft 541 kts 92°
2026-04-23 03:31 33.73677 -116.57207 26218 ft 544 kts 91°
2026-04-23 03:32 33.73564 -116.52664 26529 ft 545 kts 92°
2026-04-23 03:32 33.73448 -116.48098 26839 ft 547 kts 92°
2026-04-23 03:32 33.73330 -116.43516 27138 ft 549 kts 92°
2026-04-23 03:32 33.73212 -116.38965 27410 ft 552 kts 92°
2026-04-23 03:33 33.73089 -116.34345 27676 ft 554 kts 92°
2026-04-23 03:33 33.72965 -116.29709 27954 ft 556 kts 92°
2026-04-23 03:33 33.72839 -116.25063 28256 ft 558 kts 92°
2026-04-23 03:33 33.72710 -116.20385 28492 ft 561 kts 92°
2026-04-23 03:34 33.72630 -116.15679 28739 ft 563 kts 88°
2026-04-23 03:34 33.73016 -116.11068 29094 ft 562 kts 77°
2026-04-23 03:34 33.74087 -116.06567 29474 ft 557 kts 65°
2026-04-23 03:34 33.75811 -116.02417 29827 ft 552 kts 54°
2026-04-23 03:35 33.78019 -115.98662 30151 ft 548 kts 49°
2026-04-23 03:35 33.79562 -115.96251 30300 ft 548 kts 47°
2026-04-23 03:35 33.82733 -115.91493 30568 ft 551 kts 46°
2026-04-23 03:35 33.85157 -115.87917 30799 ft 552 kts 46°
2026-04-23 03:36 33.86799 -115.85492 30981 ft 552 kts 46°
2026-04-23 03:36 33.89189 -115.81941 31210 ft 553 kts 46°
2026-04-23 03:36 33.91608 -115.78321 31495 ft 554 kts 46°
2026-04-23 03:36 33.94016 -115.74696 31812 ft 552 kts 46°
2026-04-23 03:37 33.96411 -115.71072 32131 ft 552 kts 46°
2026-04-23 03:37 33.98802 -115.67445 32334 ft 553 kts 46°
2026-04-23 03:37 34.01198 -115.63807 32540 ft 553 kts 46°
2026-04-23 03:37 34.03562 -115.60213 32836 ft 552 kts 46°
2026-04-23 03:38 34.08344 -115.52937 32907 ft 556 kts 46°
2026-04-23 03:38 34.13153 -115.45605 32905 ft 557 kts 46°
2026-04-23 03:39 34.17966 -115.38256 32899 ft 558 kts 46°
2026-04-23 03:39 34.22782 -115.30883 32901 ft 557 kts 46°
2026-04-23 03:40 34.27542 -115.23577 32918 ft 554 kts 47°
2026-04-23 03:40 34.32300 -115.16259 32909 ft 553 kts 47°
2026-04-23 03:41 34.37053 -115.08933 32887 ft 552 kts 47°
2026-04-23 03:41 34.41779 -115.01639 32912 ft 552 kts 47°
2026-04-23 03:42 34.46536 -114.94287 32890 ft 555 kts 47°
2026-04-23 03:42 34.51284 -114.86932 32894 ft 556 kts 47°
2026-04-23 03:43 34.56053 -114.79524 32897 ft 556 kts 47°
2026-04-23 03:43 34.60821 -114.72103 32904 ft 556 kts 47°
2026-04-23 03:44 34.65552 -114.64724 32922 ft 558 kts 47°
2026-04-23 03:44 34.70340 -114.57246 32905 ft 560 kts 47°
2026-04-23 03:45 34.75120 -114.49745 32903 ft 561 kts 48°
2026-04-23 03:45 34.79184 -114.41637 32890 ft 566 kts 57°
2026-04-23 03:46 34.82961 -114.33192 32892 ft 567 kts 58°
2026-04-23 03:46 34.86674 -114.24702 32866 ft 568 kts 58°
2026-04-23 03:47 34.90391 -114.16202 32872 ft 568 kts 58°
2026-04-23 03:47 34.94092 -114.07756 32880 ft 568 kts 58°
2026-04-23 03:48 34.97814 -113.99264 32881 ft 565 kts 58°
2026-04-23 03:48 35.01515 -113.90793 32877 ft 564 kts 58°
2026-04-23 03:49 35.05184 -113.82375 32880 ft 565 kts 58°
2026-04-23 03:49 35.08874 -113.73877 32902 ft 566 kts 58°
2026-04-23 03:50 35.12565 -113.65356 32886 ft 567 kts 58°
2026-04-23 03:50 35.16230 -113.56876 32908 ft 567 kts 58°
2026-04-23 03:51 35.19915 -113.48328 32905 ft 567 kts 58°
2026-04-23 03:51 35.23591 -113.39779 32906 ft 567 kts 59°
2026-04-23 03:52 35.27244 -113.31266 32913 ft 567 kts 59°
2026-04-23 03:52 35.30906 -113.22713 32921 ft 567 kts 59°
2026-04-23 03:53 35.34560 -113.14152 32924 ft 567 kts 59°
2026-04-23 03:53 35.38187 -113.05631 32925 ft 567 kts 59°
2026-04-23 03:54 35.41830 -112.97052 32931 ft 567 kts 59°
2026-04-23 03:54 35.45469 -112.88461 32931 ft 567 kts 59°
2026-04-23 03:55 35.49081 -112.79913 32946 ft 567 kts 59°
2026-04-23 03:55 35.52720 -112.71277 32939 ft 570 kts 59°
2026-04-23 03:56 35.56372 -112.62592 32938 ft 572 kts 59°
2026-04-23 03:56 35.59997 -112.53943 32939 ft 572 kts 59°
2026-04-23 03:57 35.63645 -112.45218 32931 ft 572 kts 59°
2026-04-23 03:57 35.67280 -112.36499 32944 ft 571 kts 59°
2026-04-23 03:58 35.70874 -112.27858 32939 ft 571 kts 59°
2026-04-23 03:58 35.74489 -112.19142 32936 ft 571 kts 60°
2026-04-23 03:59 35.78096 -112.10426 32917 ft 570 kts 60°
2026-04-23 03:59 35.81654 -112.01801 32915 ft 566 kts 60°
2026-04-23 04:00 35.85217 -111.93143 32881 ft 565 kts 60°
2026-04-23 04:00 35.86998 -111.88808 32986 ft 565 kts 60°
2026-04-23 04:00 35.88774 -111.84478 32964 ft 565 kts 60°
2026-04-23 04:01 35.92305 -111.75856 32942 ft 566 kts 60°
2026-04-23 04:01 35.95874 -111.67121 32848 ft 572 kts 60°
2026-04-23 04:02 35.99461 -111.58325 32857 ft 573 kts 60°
2026-04-23 04:02 36.03015 -111.49562 32829 ft 573 kts 60°
2026-04-23 04:03 36.06586 -111.40736 32831 ft 573 kts 60°
2026-04-23 04:03 36.10209 -111.32027 32828 ft 570 kts 54°
2026-04-23 04:04 36.15292 -111.24711 32827 ft 552 kts 32°
2026-04-23 04:04 36.21525 -111.19248 32827 ft 547 kts 26°
2026-04-23 04:05 36.27915 -111.14140 32851 ft 546 kts 25°
2026-04-23 04:05 36.34295 -111.09070 32817 ft 549 kts 25°
2026-04-23 04:06 36.40723 -111.03898 32823 ft 550 kts 25°
2026-04-23 04:06 36.47142 -110.98689 32819 ft 550 kts 26°
2026-04-23 04:07 36.53508 -110.93507 32811 ft 550 kts 26°
2026-04-23 04:07 36.59912 -110.88285 32806 ft 550 kts 26°
2026-04-23 04:08 36.66317 -110.83051 32814 ft 551 kts 26°
2026-04-23 04:08 36.72696 -110.77833 32814 ft 550 kts 26°
2026-04-23 04:09 36.79104 -110.72581 32812 ft 549 kts 26°
2026-04-23 04:09 36.85504 -110.67325 32813 ft 549 kts 26°
2026-04-23 04:10 36.91864 -110.62102 32816 ft 551 kts 26°
2026-04-23 04:10 36.98262 -110.56814 32804 ft 550 kts 26°
2026-04-23 04:11 37.04656 -110.51524 32803 ft 550 kts 26°
2026-04-23 04:11 37.11012 -110.46256 32806 ft 551 kts 26°
2026-04-23 04:12 37.17431 -110.40930 32799 ft 552 kts 26°
2026-04-23 04:12 37.23845 -110.35591 32790 ft 552 kts 26°
2026-04-23 04:13 37.30217 -110.30280 32789 ft 552 kts 26°
2026-04-23 04:13 37.36637 -110.24925 32792 ft 553 kts 26°
2026-04-23 04:14 37.43057 -110.19549 32787 ft 554 kts 26°
2026-04-23 04:14 37.49450 -110.14185 32793 ft 554 kts 26°
2026-04-23 04:15 37.55885 -110.08781 32793 ft 556 kts 26°
2026-04-23 04:16 37.65537 -110.00652 32804 ft 560 kts 26°
2026-04-23 04:16 37.72035 -109.95162 32794 ft 562 kts 26°
2026-04-23 04:17 37.78546 -109.89653 32810 ft 562 kts 26°
2026-04-23 04:17 37.85041 -109.84137 32809 ft 562 kts 26°
2026-04-23 04:18 37.91532 -109.78610 32810 ft 561 kts 26°
2026-04-23 04:18 37.97974 -109.73115 32817 ft 562 kts 26°
2026-04-23 04:19 38.04460 -109.67572 32814 ft 562 kts 26°
2026-04-23 04:19 38.10959 -109.62000 32817 ft 562 kts 27°
2026-04-23 04:20 38.17400 -109.56470 32810 ft 560 kts 27°
2026-04-23 04:20 38.23854 -109.50927 32827 ft 558 kts 27°
2026-04-23 04:21 38.30287 -109.45393 32806 ft 558 kts 27°
2026-04-23 04:21 38.36693 -109.39872 32822 ft 558 kts 28°
2026-04-23 04:22 38.43134 -109.34295 32814 ft 558 kts 28°
2026-04-23 04:22 38.49549 -109.28723 32811 ft 556 kts 28°
2026-04-23 04:23 38.55919 -109.23180 32813 ft 557 kts 28°
2026-04-23 04:23 38.62326 -109.17601 32799 ft 557 kts 28°
2026-04-23 04:24 38.68727 -109.12022 32799 ft 555 kts 28°
2026-04-23 04:24 38.75125 -109.06427 32776 ft 557 kts 29°
2026-04-23 04:25 38.81493 -109.00837 32762 ft 558 kts 29°
2026-04-23 04:25 38.87909 -108.95203 32756 ft 558 kts 29°
2026-04-23 04:26 38.94291 -108.89586 32749 ft 557 kts 29°
2026-04-23 04:26 38.99647 -108.84856 32750 ft 557 kts 29°
2026-04-23 04:27 39.05993 -108.79242 32732 ft 557 kts 29°
2026-04-23 04:27 39.12445 -108.73686 32862 ft 558 kts 28°
2026-04-23 04:28 39.22217 -108.65465 32884 ft 560 kts 28°
2026-04-23 04:28 39.28742 -108.59930 32860 ft 560 kts 28°
2026-04-23 04:29 39.35214 -108.54420 32830 ft 560 kts 28°
2026-04-23 04:29 39.41716 -108.48855 32789 ft 560 kts 28°
2026-04-23 04:30 39.48194 -108.43293 32778 ft 556 kts 28°
2026-04-23 04:30 39.54602 -108.37781 32780 ft 557 kts 28°
2026-04-23 04:31 39.61107 -108.32182 32780 ft 557 kts 28°
2026-04-23 04:31 39.67530 -108.26640 32817 ft 557 kts 28°
2026-04-23 04:32 39.73975 -108.21065 32805 ft 555 kts 28°
2026-04-23 04:32 39.80407 -108.15488 32835 ft 555 kts 28°
2026-04-23 04:33 39.86840 -108.09894 32890 ft 555 kts 29°
2026-04-23 04:33 39.93226 -108.04328 32970 ft 555 kts 29°
2026-04-23 04:34 39.99661 -107.98712 32999 ft 556 kts 29°
2026-04-23 04:34 40.06151 -107.93220 33001 ft 552 kts 22°
2026-04-23 04:35 40.09563 -107.91120 32816 ft 546 kts 17°
2026-04-23 04:35 40.13062 -107.89183 32812 ft 545 kts 16°
2026-04-23 04:35 40.20111 -107.85489 32825 ft 545 kts 15°
2026-04-23 04:36 40.27200 -107.81843 32826 ft 547 kts 15°
2026-04-23 04:36 40.34247 -107.78186 32893 ft 548 kts 15°
2026-04-23 04:37 40.41338 -107.74479 32948 ft 548 kts 15°
2026-04-23 04:37 40.48467 -107.70748 32961 ft 553 kts 15°
2026-04-23 04:38 40.55622 -107.66978 32969 ft 554 kts 15°
2026-04-23 04:38 40.62750 -107.63214 32980 ft 554 kts 16°
2026-04-23 04:39 40.69894 -107.59436 32928 ft 552 kts 16°
2026-04-23 04:39 40.76984 -107.55682 32897 ft 551 kts 16°
2026-04-23 04:40 40.84102 -107.51904 32957 ft 551 kts 16°
2026-04-23 04:40 40.91214 -107.48119 33007 ft 550 kts 16°
2026-04-23 04:41 40.98315 -107.44327 33020 ft 549 kts 16°
2026-04-23 04:41 41.05406 -107.40539 33034 ft 549 kts 16°
2026-04-23 04:42 41.12441 -107.36775 33006 ft 548 kts 16°
2026-04-23 04:42 41.19520 -107.32973 32949 ft 548 kts 16°
2026-04-23 04:43 41.26588 -107.29167 32897 ft 547 kts 16°
2026-04-23 04:43 41.33661 -107.25352 32835 ft 546 kts 17°
2026-04-23 04:44 41.40659 -107.21565 32814 ft 544 kts 17°
2026-04-23 04:44 41.47682 -107.17757 32814 ft 544 kts 17°
2026-04-23 04:45 41.54674 -107.13959 32858 ft 544 kts 17°
2026-04-23 04:45 41.61703 -107.10132 32889 ft 544 kts 17°
2026-04-23 04:46 41.68718 -107.06304 32920 ft 544 kts 17°
2026-04-23 04:46 41.75742 -107.02465 32932 ft 544 kts 17°
2026-04-23 04:47 41.82698 -106.98647 32912 ft 543 kts 18°
2026-04-23 04:47 41.89693 -106.94798 32874 ft 543 kts 18°
2026-04-23 04:48 41.96698 -106.90937 32850 ft 543 kts 18°
2026-04-23 04:48 42.03628 -106.87109 32751 ft 541 kts 18°
2026-04-23 04:49 42.10603 -106.83247 32747 ft 540 kts 18°
2026-04-23 04:49 42.17562 -106.79385 32746 ft 540 kts 18°
2026-04-23 04:50 42.24530 -106.75508 32735 ft 542 kts 18°
2026-04-23 04:50 42.31468 -106.71639 32724 ft 542 kts 18°
2026-04-23 04:51 42.38447 -106.67743 32717 ft 543 kts 19°
2026-04-23 04:51 42.45436 -106.63827 32705 ft 543 kts 20°
2026-04-23 04:52 42.52422 -106.59898 32706 ft 543 kts 20°
2026-04-23 04:52 42.59374 -106.55981 32692 ft 543 kts 20°
2026-04-23 04:53 42.66362 -106.52037 32679 ft 543 kts 20°
2026-04-23 04:53 42.73295 -106.48114 32662 ft 542 kts 20°
2026-04-23 04:54 42.80276 -106.44153 32653 ft 542 kts 20°
2026-04-23 04:54 42.87253 -106.40186 32657 ft 542 kts 20°
2026-04-23 04:55 42.90733 -106.38203 32803 ft 542 kts 20°
2026-04-23 04:55 42.94180 -106.36238 32804 ft 542 kts 20°
2026-04-23 04:55 43.01154 -106.32256 32768 ft 543 kts 22°
2026-04-23 04:56 43.08122 -106.28265 32921 ft 541 kts 22°
2026-04-23 04:56 43.11586 -106.26282 33413 ft 536 kts 23°
2026-04-23 04:56 43.15013 -106.24323 33960 ft 530 kts 24°
2026-04-23 04:57 43.18413 -106.22380 34208 ft 530 kts 24°
2026-04-23 04:57 43.21789 -106.20448 34334 ft 532 kts 24°
2026-04-23 04:57 43.25209 -106.18488 34518 ft 533 kts 24°
2026-04-23 04:57 43.28650 -106.16513 34612 ft 536 kts 23°
2026-04-23 04:58 43.35547 -106.12547 34614 ft 542 kts 24°
2026-04-23 04:58 43.42508 -106.08534 34606 ft 541 kts 24°
2026-04-23 04:59 43.49455 -106.04519 34604 ft 541 kts 24°
2026-04-23 04:59 43.56351 -106.00523 34591 ft 539 kts 24°
2026-04-23 05:00 43.63287 -105.96495 34590 ft 543 kts 24°
2026-04-23 05:00 43.70280 -105.92422 34597 ft 545 kts 24°
2026-04-23 05:01 43.77238 -105.88360 34585 ft 545 kts 24°
2026-04-23 05:01 43.84245 -105.84259 34585 ft 545 kts 24°
2026-04-23 05:02 43.91212 -105.80171 34587 ft 546 kts 24°
2026-04-23 05:02 43.98243 -105.76034 34573 ft 548 kts 25°
2026-04-23 05:03 44.05231 -105.71911 34572 ft 548 kts 25°
2026-04-23 05:03 44.12299 -105.67732 34580 ft 554 kts 25°
2026-04-23 05:04 44.19422 -105.63508 34560 ft 557 kts 25°
2026-04-23 05:04 44.26507 -105.59297 34554 ft 557 kts 25°
2026-04-23 05:05 44.33599 -105.54912 34657 ft 555 kts 31°
2026-04-23 05:05 44.39987 -105.48979 34642 ft 550 kts 39°
2026-04-23 05:06 44.46165 -105.42580 34623 ft 560 kts 40°
2026-04-23 05:06 44.52392 -105.36001 34593 ft 560 kts 40°
2026-04-23 05:07 44.58619 -105.29429 34561 ft 559 kts 40°
2026-04-23 05:07 44.64711 -105.23005 34532 ft 561 kts 39°
2026-04-23 05:08 44.70997 -105.16364 34518 ft 567 kts 39°
2026-04-23 05:08 44.77322 -105.09670 34535 ft 568 kts 39°
2026-04-23 05:09 44.83633 -105.02971 34520 ft 568 kts 39°
2026-04-23 05:09 44.89943 -104.96250 34516 ft 568 kts 39°
2026-04-23 05:10 44.96210 -104.89556 34508 ft 568 kts 39°
2026-04-23 05:10 45.02514 -104.82801 34499 ft 567 kts 39°
2026-04-23 05:11 45.08790 -104.76060 34498 ft 566 kts 39°
2026-04-23 05:11 45.15010 -104.69364 34478 ft 560 kts 39°
2026-04-23 05:12 45.21180 -104.62703 34482 ft 554 kts 39°
2026-04-23 05:12 45.27309 -104.56060 34482 ft 554 kts 39°
2026-04-23 05:13 45.33407 -104.49433 34475 ft 555 kts 39°
2026-04-23 05:14 45.42607 -104.39409 34468 ft 554 kts 40°
2026-04-23 05:14 45.48688 -104.32755 34474 ft 554 kts 39°
2026-04-23 05:15 45.54799 -104.26050 34464 ft 554 kts 39°
2026-04-23 05:15 45.59882 -104.20460 34463 ft 554 kts 40°
2026-04-23 05:16 45.65990 -104.13724 34459 ft 554 kts 40°
2026-04-23 05:16 45.72103 -104.06965 34457 ft 554 kts 40°
2026-04-23 05:17 45.78150 -104.00262 34459 ft 552 kts 40°
2026-04-23 05:17 45.84218 -103.93513 34451 ft 552 kts 40°
2026-04-23 05:18 45.90295 -103.86734 34441 ft 553 kts 40°
2026-04-23 05:18 45.96330 -103.79985 34439 ft 553 kts 40°
2026-04-23 05:19 46.02410 -103.73166 34439 ft 553 kts 40°
2026-04-23 05:19 46.08477 -103.66343 34450 ft 553 kts 40°
2026-04-23 05:20 46.14549 -103.59494 34457 ft 553 kts 40°
2026-04-23 05:20 46.20554 -103.52701 34468 ft 550 kts 40°
2026-04-23 05:21 46.26567 -103.45880 34474 ft 549 kts 40°
2026-04-23 05:21 46.32579 -103.39039 34464 ft 549 kts 40°
2026-04-23 05:22 46.38544 -103.32234 34418 ft 548 kts 40°
2026-04-23 05:22 46.44521 -103.25396 34399 ft 544 kts 40°
2026-04-23 05:23 46.50462 -103.18578 34392 ft 544 kts 40°
2026-04-23 05:23 46.56360 -103.11788 34390 ft 544 kts 40°
2026-04-23 05:24 46.62291 -103.04942 34399 ft 544 kts 40°
2026-04-23 05:24 46.68187 -102.98123 34407 ft 536 kts 41°
2026-04-23 05:25 46.73971 -102.91410 34420 ft 533 kts 41°
2026-04-23 05:25 46.79782 -102.84643 34420 ft 534 kts 42°
2026-04-23 05:26 46.85637 -102.77954 34419 ft 536 kts 37°
2026-04-23 05:26 46.91974 -102.72168 34410 ft 537 kts 34°
2026-04-23 05:27 46.98372 -102.66602 34393 ft 539 kts 34°
2026-04-23 05:27 47.04846 -102.61005 34373 ft 539 kts 34°
2026-04-23 05:28 47.11306 -102.55390 34370 ft 539 kts 34°
2026-04-23 05:28 47.17710 -102.49790 34353 ft 539 kts 34°
2026-04-23 05:29 47.24166 -102.44125 34343 ft 541 kts 34°
2026-04-23 05:29 47.30652 -102.38415 34345 ft 543 kts 34°
2026-04-23 05:30 47.37109 -102.32718 34351 ft 543 kts 34°
2026-04-23 05:30 47.43586 -102.26988 34346 ft 541 kts 34°
2026-04-23 05:31 47.50009 -102.21287 34341 ft 541 kts 34°
2026-04-23 05:31 47.56477 -102.15530 34344 ft 541 kts 34°
2026-04-23 05:32 47.62935 -102.09764 34337 ft 541 kts 34°
2026-04-23 05:32 47.69384 -102.03990 34334 ft 541 kts 34°
2026-04-23 05:33 47.75798 -101.98230 34339 ft 541 kts 34°
2026-04-23 05:33 47.82251 -101.92418 34341 ft 541 kts 34°
2026-04-23 05:34 47.88640 -101.86647 34328 ft 540 kts 34°
2026-04-23 05:34 47.95075 -101.80819 34333 ft 540 kts 34°
2026-04-23 05:35 48.01512 -101.74971 34323 ft 540 kts 34°
2026-04-23 05:35 48.07900 -101.69150 34322 ft 539 kts 34°
2026-04-23 05:36 48.14298 -101.63304 34319 ft 536 kts 34°
2026-04-23 05:36 48.20672 -101.57462 34320 ft 537 kts 34°
2026-04-23 05:37 48.27030 -101.51614 34321 ft 539 kts 34°
2026-04-23 05:37 48.33433 -101.45710 34298 ft 539 kts 34°
2026-04-23 05:38 48.39836 -101.39789 34299 ft 540 kts 34°
2026-04-23 05:38 48.46208 -101.33879 34298 ft 540 kts 34°
2026-04-23 05:39 48.52602 -101.27928 34293 ft 540 kts 34°
2026-04-23 05:39 48.58997 -101.21960 34284 ft 539 kts 34°
2026-04-23 05:40 48.65337 -101.16027 34295 ft 539 kts 34°
2026-04-23 05:40 48.71718 -101.10038 34295 ft 539 kts 34°
2026-04-23 05:41 48.78093 -101.04034 34311 ft 539 kts 34°
2026-04-23 05:41 48.84417 -100.98063 34281 ft 538 kts 34°
2026-04-23 05:42 48.90800 -100.92016 34306 ft 540 kts 35°
2026-04-23 05:42 48.97189 -100.85944 34309 ft 541 kts 35°
2026-04-23 05:43 49.03577 -100.79858 34325 ft 541 kts 35°
2026-04-23 05:43 49.09908 -100.73804 34320 ft 540 kts 35°
2026-04-23 05:44 49.16274 -100.67696 34320 ft 539 kts 35°
2026-04-23 05:44 49.22639 -100.61571 34333 ft 540 kts 35°
2026-04-23 05:45 49.28959 -100.55471 34335 ft 540 kts 35°
2026-04-23 05:45 49.35325 -100.49307 34350 ft 540 kts 35°
2026-04-23 05:46 49.41696 -100.43119 34354 ft 540 kts 35°
2026-04-23 05:46 49.48010 -100.36969 34364 ft 540 kts 35°
2026-04-23 05:47 49.54366 -100.30758 34369 ft 540 kts 35°
2026-04-23 05:47 49.60714 -100.24538 34388 ft 539 kts 35°
2026-04-23 05:48 49.67050 -100.18308 34383 ft 539 kts 35°
2026-04-23 05:48 49.73343 -100.12101 34379 ft 539 kts 35°
2026-04-23 05:49 49.79675 -100.05834 34371 ft 540 kts 35°
2026-04-23 05:49 49.85969 -99.99587 34347 ft 540 kts 35°
2026-04-23 05:50 49.92144 -99.93054 34367 ft 534 kts 40°
2026-04-23 05:50 49.97994 -99.85932 34434 ft 533 kts 41°
2026-04-23 05:51 50.03783 -99.78704 34441 ft 533 kts 42°
2026-04-23 05:51 50.09569 -99.71436 34445 ft 534 kts 42°
2026-04-23 05:52 50.15318 -99.64207 34422 ft 534 kts 41°
2026-04-23 05:52 50.21094 -99.56931 34475 ft 531 kts 41°
2026-04-23 05:53 50.26810 -99.49712 34469 ft 531 kts 41°
2026-04-23 05:53 50.32567 -99.42416 34470 ft 533 kts 41°
2026-04-23 05:54 50.38346 -99.35066 34472 ft 534 kts 41°
2026-04-23 05:54 50.44112 -99.27711 34450 ft 533 kts 41°
2026-04-23 05:55 50.49806 -99.20422 34467 ft 528 kts 40°
2026-04-23 05:55 50.55505 -99.13108 34475 ft 529 kts 41°
2026-04-23 05:56 50.61225 -99.05738 34472 ft 531 kts 41°
2026-04-23 05:56 50.66917 -98.98382 34467 ft 531 kts 41°
2026-04-23 05:57 50.72638 -98.90966 34467 ft 531 kts 42°
2026-04-23 05:57 50.78351 -98.83535 34467 ft 531 kts 42°
2026-04-23 05:58 50.84024 -98.76133 34466 ft 531 kts 42°
2026-04-23 05:58 50.89720 -98.68675 34466 ft 531 kts 42°
2026-04-23 05:59 50.95418 -98.61190 34464 ft 531 kts 42°
2026-04-23 05:59 51.01064 -98.53751 34465 ft 530 kts 42°
2026-04-23 06:00 51.06757 -98.46221 34492 ft 533 kts 41°
2026-04-23 06:00 51.12466 -98.38648 34476 ft 534 kts 41°
2026-04-23 06:01 51.18130 -98.31110 34492 ft 534 kts 41°
2026-04-23 06:01 51.23838 -98.23489 34498 ft 534 kts 41°
2026-04-23 06:02 51.29530 -98.15862 34533 ft 534 kts 41°
2026-04-23 06:02 51.35218 -98.08211 34520 ft 540 kts 41°
2026-04-23 06:03 51.40995 -98.00419 34527 ft 543 kts 41°
2026-04-23 06:03 51.46775 -97.92599 34533 ft 543 kts 41°
2026-04-23 06:04 51.52550 -97.84756 34541 ft 543 kts 41°
2026-04-23 06:04 51.58319 -97.76895 34551 ft 544 kts 41°
2026-04-23 06:05 51.64077 -97.69018 34551 ft 547 kts 41°
2026-04-23 06:05 51.69890 -97.61041 34556 ft 548 kts 41°
2026-04-23 06:06 51.75665 -97.53089 34560 ft 548 kts 41°
2026-04-23 06:06 51.81462 -97.45078 34576 ft 548 kts 40°
2026-04-23 06:07 51.86286 -97.38388 34580 ft 549 kts 40°
2026-04-23 06:07 51.92091 -97.30315 34575 ft 549 kts 40°
2026-04-23 06:08 51.97891 -97.22220 34590 ft 549 kts 40°
2026-04-23 06:08 52.03637 -97.14170 34592 ft 549 kts 40°
2026-04-23 06:09 52.09420 -97.06039 34620 ft 548 kts 40°
2026-04-23 06:09 52.15177 -96.97917 34617 ft 546 kts 40°
2026-04-23 06:10 52.20873 -96.89852 34637 ft 545 kts 39°
2026-04-23 06:10 52.26601 -96.81717 34645 ft 544 kts 39°
2026-04-23 06:11 52.32309 -96.73577 34670 ft 543 kts 39°
2026-04-23 06:11 52.37889 -96.65333 34669 ft 543 kts 43°
2026-04-23 06:12 52.43248 -96.56586 34696 ft 543 kts 44°
2026-04-23 06:12 52.51222 -96.43463 34709 ft 542 kts 43°
2026-04-23 06:13 52.56580 -96.34747 34719 ft 541 kts 43°
2026-04-23 06:13 52.61946 -96.26023 34743 ft 541 kts 43°
2026-04-23 06:14 52.67312 -96.17269 34745 ft 542 kts 43°
2026-04-23 06:14 52.72637 -96.08544 34760 ft 542 kts 43°
2026-04-23 06:15 52.77990 -95.99740 34776 ft 542 kts 43°
2026-04-23 06:15 52.83335 -95.90916 34787 ft 542 kts 43°
2026-04-23 06:16 52.88637 -95.82128 34803 ft 542 kts 43°
2026-04-23 06:16 52.93982 -95.73239 34813 ft 544 kts 43°
2026-04-23 06:17 52.99332 -95.64309 34828 ft 545 kts 43°
2026-04-23 06:17 53.04640 -95.55415 34837 ft 545 kts 42°
2026-04-23 06:18 53.09972 -95.46447 34861 ft 545 kts 43°
2026-04-23 06:18 53.15301 -95.37449 34870 ft 545 kts 42°
2026-04-23 06:19 53.20590 -95.28487 34882 ft 545 kts 42°
2026-04-23 06:19 53.25906 -95.19446 34892 ft 545 kts 42°
2026-04-23 06:20 53.31217 -95.10376 34909 ft 545 kts 42°
2026-04-23 06:20 53.36482 -95.01351 34916 ft 543 kts 42°
2026-04-23 06:21 53.41760 -94.92274 34915 ft 543 kts 42°
2026-04-23 06:21 53.47034 -94.83167 34922 ft 543 kts 42°
2026-04-23 06:22 53.52276 -94.74082 34941 ft 543 kts 42°
2026-04-23 06:22 53.57544 -94.64916 34936 ft 543 kts 42°
2026-04-23 06:23 53.62763 -94.55800 34943 ft 543 kts 42°
2026-04-23 06:23 53.68014 -94.46594 34947 ft 543 kts 42°
2026-04-23 06:24 53.73230 -94.37415 34946 ft 544 kts 42°
2026-04-23 06:24 53.78464 -94.28168 34958 ft 544 kts 42°
2026-04-23 06:25 53.83693 -94.18894 34968 ft 544 kts 43°
2026-04-23 06:25 53.88877 -94.09662 35000 ft 542 kts 42°
2026-04-23 06:26 53.94074 -94.00373 35018 ft 541 kts 42°
2026-04-23 06:26 53.99259 -93.91068 35037 ft 542 kts 42°
2026-04-23 06:27 54.04407 -93.81798 35034 ft 542 kts 42°
2026-04-23 06:27 54.09583 -93.72440 35061 ft 542 kts 42°
2026-04-23 06:28 54.14717 -93.63121 35061 ft 541 kts 42°
2026-04-23 06:28 54.19861 -93.53744 35114 ft 540 kts 42°
2026-04-23 06:29 54.25000 -93.44344 35086 ft 541 kts 42°
2026-04-23 06:29 54.30145 -93.34895 35110 ft 541 kts 42°
2026-04-23 06:30 54.35244 -93.25492 35110 ft 542 kts 42°
2026-04-23 06:30 54.40373 -93.15997 35125 ft 541 kts 42°
2026-04-23 06:31 54.45478 -93.06506 35134 ft 539 kts 42°
2026-04-23 06:31 54.50560 -92.97024 35147 ft 538 kts 42°
2026-04-23 06:32 54.55592 -92.87598 35156 ft 537 kts 42°
2026-04-23 06:32 54.60652 -92.78085 35167 ft 537 kts 42°
2026-04-23 06:33 54.65708 -92.68539 35179 ft 537 kts 41°
2026-04-23 06:33 54.70705 -92.59066 35182 ft 534 kts 41°
2026-04-23 06:34 54.75706 -92.49545 35200 ft 533 kts 41°
2026-04-23 06:34 54.80654 -92.40091 35194 ft 532 kts 41°
2026-04-23 06:35 54.85628 -92.30555 35207 ft 532 kts 42°
2026-04-23 06:35 54.90588 -92.21005 35210 ft 532 kts 42°
2026-04-23 06:36 54.95514 -92.11480 35229 ft 531 kts 41°
2026-04-23 06:36 55.00447 -92.01903 35248 ft 531 kts 41°
2026-04-23 06:37 55.05378 -91.92295 35246 ft 531 kts 41°
2026-04-23 06:37 55.10276 -91.82713 35240 ft 531 kts 42°
2026-04-23 06:38 55.15198 -91.73043 35262 ft 532 kts 42°
2026-04-23 06:38 55.20109 -91.63356 35272 ft 532 kts 41°
2026-04-23 06:39 55.24978 -91.53715 35276 ft 530 kts 41°
2026-04-23 06:39 55.29850 -91.44025 35279 ft 529 kts 41°
2026-04-23 06:40 55.34712 -91.34318 35280 ft 528 kts 41°
2026-04-23 06:40 55.39570 -91.24582 35294 ft 528 kts 42°
2026-04-23 06:41 55.44382 -91.14899 35294 ft 528 kts 42°
2026-04-23 06:41 55.49218 -91.05125 35310 ft 527 kts 41°
2026-04-23 06:42 55.54029 -90.95359 35315 ft 526 kts 41°
2026-04-23 06:42 55.58800 -90.85643 35323 ft 526 kts 41°
2026-04-23 06:43 55.63595 -90.75838 35324 ft 526 kts 41°
2026-04-23 06:43 55.68387 -90.65998 35334 ft 526 kts 42°
2026-04-23 06:44 55.73137 -90.56200 35333 ft 526 kts 42°
2026-04-23 06:44 55.77899 -90.46336 35333 ft 524 kts 41°
2026-04-23 06:45 55.82608 -90.36542 35344 ft 523 kts 41°
2026-04-23 06:45 55.87333 -90.26679 35344 ft 523 kts 41°
2026-04-23 06:46 55.92053 -90.16789 35349 ft 523 kts 42°
2026-04-23 06:46 55.96734 -90.06936 35349 ft 523 kts 42°
2026-04-23 06:47 56.01438 -89.97010 35367 ft 522 kts 41°
2026-04-23 06:47 56.06197 -89.87222 35356 ft 519 kts 40°
2026-04-23 06:48 56.10963 -89.77500 35359 ft 519 kts 40°
2026-04-23 06:48 56.15684 -89.67796 35358 ft 519 kts 41°
2026-04-23 06:49 56.20420 -89.57986 35358 ft 519 kts 41°
2026-04-23 06:49 56.25147 -89.48142 35370 ft 519 kts 41°
2026-04-23 06:50 56.29868 -89.38270 35374 ft 520 kts 41°
2026-04-23 06:50 56.34540 -89.28455 35372 ft 517 kts 41°
2026-04-23 06:51 56.39217 -89.18594 35371 ft 516 kts 41°
2026-04-23 06:51 56.43886 -89.08716 35373 ft 516 kts 41°
2026-04-23 06:52 56.48548 -88.98811 35376 ft 516 kts 41°
2026-04-23 06:52 56.53172 -88.88942 35379 ft 516 kts 41°
2026-04-23 06:53 56.57817 -88.78985 35404 ft 515 kts 41°
2026-04-23 06:53 56.62394 -88.69125 35386 ft 512 kts 41°
2026-04-23 06:54 56.66984 -88.59210 35387 ft 512 kts 41°
2026-04-23 06:54 56.71566 -88.49273 35386 ft 512 kts 41°
2026-04-23 06:55 56.76116 -88.39360 35386 ft 512 kts 41°
2026-04-23 06:55 56.80683 -88.29367 35387 ft 512 kts 41°
2026-04-23 06:56 56.85243 -88.19346 35399 ft 510 kts 41°
2026-04-23 06:56 56.89730 -88.09435 35383 ft 507 kts 41°
2026-04-23 06:57 56.94231 -87.99466 35399 ft 507 kts 41°
2026-04-23 06:57 56.98726 -87.89472 35389 ft 507 kts 41°
2026-04-23 06:58 57.03208 -87.79458 35404 ft 507 kts 42°
2026-04-23 06:58 57.07656 -87.69478 35389 ft 508 kts 42°
2026-04-23 06:59 57.12112 -87.59432 35391 ft 501 kts 42°
2026-04-23 06:59 57.15740 -87.51205 35393 ft 495 kts 42°
2026-04-23 07:00 57.20076 -87.41366 35395 ft 494 kts 42°
2026-04-23 07:00 57.24406 -87.31510 35392 ft 494 kts 42°
2026-04-23 07:01 57.28699 -87.21690 35390 ft 494 kts 42°
2026-04-23 07:01 57.33013 -87.11773 35390 ft 494 kts 42°
2026-04-23 07:02 57.37321 -87.01829 35392 ft 494 kts 42°
2026-04-23 07:02 57.41609 -86.91885 35390 ft 492 kts 42°
2026-04-23 07:03 57.45852 -86.82013 35390 ft 492 kts 43°
2026-04-23 07:03 57.50122 -86.72037 35390 ft 492 kts 43°
2026-04-23 07:04 57.54384 -86.62036 35387 ft 492 kts 43°
2026-04-23 07:04 57.58603 -86.52091 35387 ft 492 kts 43°
2026-04-23 07:05 57.62850 -86.42043 35384 ft 494 kts 43°
2026-04-23 07:05 57.67118 -86.31906 35390 ft 497 kts 43°
2026-04-23 07:06 57.71393 -86.21699 35388 ft 498 kts 44°
2026-04-23 07:06 57.75636 -86.11520 35390 ft 499 kts 44°
2026-04-23 07:07 57.79899 -86.01253 35389 ft 498 kts 44°
2026-04-23 07:07 57.84155 -85.90960 35387 ft 498 kts 44°
2026-04-23 07:08 57.88384 -85.80696 35394 ft 500 kts 44°
2026-04-23 07:08 57.92651 -85.70297 35385 ft 502 kts 45°
2026-04-23 07:09 57.96889 -85.59915 35387 ft 503 kts 45°
2026-04-23 07:09 58.01152 -85.49422 35402 ft 503 kts 45°
2026-04-23 07:10 58.05404 -85.38912 35400 ft 503 kts 45°
2026-04-23 07:10 58.09623 -85.28440 35385 ft 503 kts 45°
2026-04-23 07:11 58.13865 -85.17865 35399 ft 504 kts 46°
2026-04-23 07:12 58.20227 -85.01919 35393 ft 506 kts 47°
2026-04-23 07:12 58.24438 -84.91298 35389 ft 506 kts 47°
2026-04-23 07:13 58.28660 -84.80606 35395 ft 506 kts 47°
2026-04-23 07:13 58.32881 -84.69870 35392 ft 506 kts 47°
2026-04-23 07:14 58.37089 -84.59119 35412 ft 506 kts 47°
2026-04-23 07:14 58.41265 -84.48402 35396 ft 506 kts 48°
2026-04-23 07:15 58.45453 -84.37602 35405 ft 506 kts 48°
2026-04-23 07:15 58.49629 -84.26778 35397 ft 504 kts 48°
2026-04-23 07:16 58.53759 -84.16031 35393 ft 504 kts 49°
2026-04-23 07:16 58.57909 -84.05185 35395 ft 504 kts 49°
2026-04-23 07:17 58.62054 -83.94304 35393 ft 504 kts 49°
2026-04-23 07:17 58.66157 -83.83479 35392 ft 504 kts 49°
2026-04-23 07:18 58.70280 -83.72552 35393 ft 504 kts 49°
2026-04-23 07:18 58.74394 -83.61600 35396 ft 503 kts 49°
2026-04-23 07:19 58.78462 -83.50718 35389 ft 503 kts 49°
2026-04-23 07:19 58.82547 -83.39739 35389 ft 503 kts 49°
2026-04-23 07:20 58.86624 -83.28736 35411 ft 503 kts 50°
2026-04-23 07:20 58.90664 -83.17782 35391 ft 503 kts 50°
2026-04-23 07:21 58.94727 -83.06710 35397 ft 503 kts 50°
2026-04-23 07:21 58.98775 -82.95626 35387 ft 503 kts 50°
2026-04-23 07:22 59.02791 -82.84580 35380 ft 503 kts 50°
2026-04-23 07:22 59.06824 -82.73434 35385 ft 503 kts 50°
2026-04-23 07:23 59.10847 -82.62264 35407 ft 503 kts 50°
2026-04-23 07:23 59.14838 -82.51135 35386 ft 504 kts 51°
2026-04-23 07:24 59.18842 -82.39910 35390 ft 504 kts 51°
2026-04-23 07:24 59.22841 -82.28647 35390 ft 504 kts 51°
2026-04-23 07:25 59.26801 -82.17444 35387 ft 503 kts 52°
2026-04-23 07:25 59.30772 -82.06151 35387 ft 503 kts 52°
2026-04-23 07:26 59.34738 -81.94822 35384 ft 503 kts 52°
2026-04-23 07:26 59.38668 -81.83538 35384 ft 504 kts 52°
2026-04-23 07:27 59.42615 -81.72153 35386 ft 504 kts 52°
2026-04-23 07:27 59.46555 -81.60734 35390 ft 504 kts 52°
2026-04-23 07:28 59.50459 -81.49362 35388 ft 504 kts 53°
2026-04-23 07:28 59.54374 -81.37902 35381 ft 504 kts 53°
2026-04-23 07:29 59.58282 -81.26409 35389 ft 504 kts 53°
2026-04-23 07:29 59.62155 -81.14967 35387 ft 504 kts 54°
2026-04-23 07:30 59.66051 -81.03395 35388 ft 504 kts 54°
2026-04-23 07:30 59.69929 -80.91816 35390 ft 504 kts 54°
2026-04-23 07:31 59.73798 -80.80212 35394 ft 504 kts 54°
2026-04-23 07:31 59.77633 -80.68650 35390 ft 505 kts 54°
2026-04-23 07:32 59.81486 -80.56976 35392 ft 505 kts 54°
2026-04-23 07:32 59.85334 -80.45259 35394 ft 505 kts 55°
2026-04-23 07:33 59.89141 -80.33612 35391 ft 505 kts 55°
2026-04-23 07:33 59.92970 -80.21833 35401 ft 505 kts 55°
2026-04-23 07:34 59.96781 -80.10053 35398 ft 505 kts 55°
2026-04-23 07:34 60.00590 -79.98231 35399 ft 505 kts 56°
2026-04-23 07:35 60.04636 -79.86867 35404 ft 504 kts 51°
2026-04-23 07:35 60.08879 -79.75658 35397 ft 504 kts 51°
2026-04-23 07:36 60.13088 -79.64364 35418 ft 505 kts 52°
2026-04-23 07:36 60.17244 -79.52978 35415 ft 505 kts 52°
2026-04-23 07:37 60.21352 -79.41609 35409 ft 505 kts 52°
2026-04-23 07:37 60.25472 -79.30143 35406 ft 505 kts 53°
2026-04-23 07:38 60.29586 -79.18649 35422 ft 506 kts 53°
2026-04-23 07:38 60.33705 -79.07092 35417 ft 508 kts 53°
2026-04-23 07:39 60.37830 -78.95458 35416 ft 509 kts 53°
2026-04-23 07:39 60.41920 -78.83861 35428 ft 509 kts 53°
2026-04-23 07:40 60.46031 -78.72140 35428 ft 510 kts 53°
2026-04-23 07:40 60.50136 -78.60387 35433 ft 510 kts 54°
2026-04-23 07:41 60.54203 -78.48682 35452 ft 509 kts 54°
2026-04-23 07:41 60.58288 -78.36876 35434 ft 510 kts 55°
2026-04-23 07:42 60.62371 -78.25004 35443 ft 511 kts 55°
2026-04-23 07:42 60.66419 -78.13172 35458 ft 512 kts 55°
2026-04-23 07:43 60.70486 -78.01224 35459 ft 512 kts 55°
2026-04-23 07:43 60.74547 -77.89234 35445 ft 512 kts 55°
2026-04-23 07:44 60.78561 -77.77320 35472 ft 511 kts 56°
2026-04-23 07:44 60.82591 -77.65295 35452 ft 511 kts 56°
2026-04-23 07:45 60.86610 -77.53249 35464 ft 511 kts 57°
2026-04-23 07:45 60.90589 -77.41254 35473 ft 510 kts 57°
2026-04-23 07:46 60.94580 -77.29162 35469 ft 510 kts 57°
2026-04-23 07:46 60.98562 -77.17036 35480 ft 510 kts 57°
2026-04-23 07:47 61.02531 -77.04884 35479 ft 510 kts 57°
2026-04-23 07:47 61.06459 -76.92793 35487 ft 510 kts 57°
2026-04-23 07:48 61.10404 -76.80586 35489 ft 510 kts 57°
2026-04-23 07:48 61.14340 -76.68343 35482 ft 510 kts 58°
2026-04-23 07:49 61.18241 -76.56142 35486 ft 511 kts 58°
2026-04-23 07:49 61.22161 -76.43819 35489 ft 511 kts 58°
2026-04-23 07:50 61.26072 -76.31468 35501 ft 511 kts 58°
2026-04-23 07:50 61.29310 -76.21187 35501 ft 511 kts 58°
2026-04-23 07:51 61.33829 -76.06753 35511 ft 511 kts 58°
2026-04-23 07:51 61.37052 -75.96402 35512 ft 511 kts 59°
2026-04-23 07:52 61.40922 -75.83914 35511 ft 511 kts 59°
2026-04-23 07:52 61.44782 -75.71397 35524 ft 512 kts 59°
2026-04-23 07:53 61.48604 -75.58930 35525 ft 512 kts 60°
2026-04-23 07:53 61.52448 -75.46317 35532 ft 513 kts 60°
2026-04-23 07:54 61.56275 -75.33698 35532 ft 513 kts 60°
2026-04-23 07:54 61.60070 -75.21115 35532 ft 513 kts 60°
2026-04-23 07:55 61.63871 -75.08441 35540 ft 513 kts 60°
2026-04-23 07:55 61.67664 -74.95724 35541 ft 512 kts 60°
2026-04-23 07:56 61.71450 -74.82960 35547 ft 513 kts 60°
2026-04-23 07:56 61.75223 -74.70168 35546 ft 513 kts 61°
2026-04-23 07:57 61.78963 -74.57415 35557 ft 513 kts 61°
2026-04-23 07:57 61.82716 -74.44548 35558 ft 513 kts 61°
2026-04-23 07:58 61.86457 -74.31649 35558 ft 513 kts 61°
2026-04-23 07:58 61.90160 -74.18805 35561 ft 513 kts 61°
2026-04-23 07:59 61.93878 -74.05843 35562 ft 513 kts 62°
2026-04-23 07:59 61.97587 -73.92826 35571 ft 514 kts 62°
2026-04-23 08:00 62.01268 -73.79844 35571 ft 515 kts 62°
2026-04-23 08:00 62.04960 -73.66750 35569 ft 515 kts 62°
2026-04-23 08:01 62.08638 -73.53623 35563 ft 515 kts 63°
2026-04-23 08:01 62.12280 -73.40552 35563 ft 515 kts 63°
2026-04-23 08:02 62.15932 -73.27367 35556 ft 515 kts 63°
2026-04-23 08:02 62.19579 -73.14121 35557 ft 516 kts 63°
2026-04-23 08:03 62.23216 -73.00836 35553 ft 516 kts 63°
2026-04-23 08:03 62.26813 -72.87617 35554 ft 516 kts 64°
2026-04-23 08:04 62.30425 -72.74264 35544 ft 516 kts 64°
2026-04-23 08:04 62.34021 -72.60894 35544 ft 516 kts 64°
2026-04-23 08:05 62.37583 -72.47567 35553 ft 516 kts 64°
2026-04-23 08:05 62.41160 -72.34104 35538 ft 517 kts 64°
2026-04-23 08:06 62.44726 -72.20607 35550 ft 517 kts 64°
2026-04-23 08:06 62.48279 -72.07073 35533 ft 517 kts 65°
2026-04-23 08:07 62.51795 -71.93597 35545 ft 517 kts 65°
2026-04-23 08:07 62.55325 -71.79989 35546 ft 517 kts 65°
2026-04-23 08:08 62.58820 -71.66431 35537 ft 518 kts 65°
2026-04-23 08:08 62.62330 -71.52733 35536 ft 519 kts 65°
2026-04-23 08:09 62.65806 -71.39082 35538 ft 518 kts 65°
2026-04-23 08:09 62.69288 -71.25325 35538 ft 518 kts 66°
2026-04-23 08:10 62.72758 -71.11529 35513 ft 518 kts 66°
2026-04-23 08:10 62.77928 -70.90799 35541 ft 522 kts 66°
2026-04-23 08:11 62.81392 -70.76809 35547 ft 523 kts 67°
2026-04-23 08:11 62.84839 -70.62802 35546 ft 523 kts 67°
2026-04-23 08:12 62.88278 -70.48738 35547 ft 522 kts 67°
2026-04-23 08:12 62.91677 -70.34744 35547 ft 522 kts 67°
2026-04-23 08:13 62.95083 -70.20631 35548 ft 522 kts 67°
2026-04-23 08:13 62.98475 -70.06481 35520 ft 527 kts 68°
2026-04-23 08:14 63.00407 -69.99551 35767 ft 534 kts 59°
2026-04-23 08:14 63.02647 -69.93046 36233 ft 531 kts 57°
2026-04-23 08:14 63.04903 -69.86754 36678 ft 527 kts 56°
2026-04-23 08:14 63.07207 -69.80458 37040 ft 526 kts 55°
2026-04-23 08:15 63.09516 -69.74200 37323 ft 525 kts 55°
2026-04-23 08:15 63.11832 -69.67930 37531 ft 527 kts 55°
2026-04-23 08:15 63.16491 -69.55240 37571 ft 532 kts 55°
2026-04-23 08:16 63.21111 -69.42554 37572 ft 532 kts 55°
2026-04-23 08:16 63.25754 -69.29714 37579 ft 532 kts 56°
2026-04-23 08:17 63.30372 -69.16860 37578 ft 531 kts 56°
2026-04-23 08:17 63.34954 -69.04035 37578 ft 531 kts 56°
2026-04-23 08:18 63.39555 -68.91082 37561 ft 532 kts 56°
2026-04-23 08:18 63.44119 -68.78151 37581 ft 535 kts 56°
2026-04-23 08:19 63.48735 -68.65006 37574 ft 537 kts 56°
2026-04-23 08:19 63.53340 -68.51823 37579 ft 537 kts 57°
2026-04-23 08:20 63.57941 -68.38572 37575 ft 537 kts 57°
2026-04-23 08:20 63.62493 -68.25382 37580 ft 537 kts 57°
2026-04-23 08:21 63.67065 -68.12051 37578 ft 538 kts 57°
2026-04-23 08:21 63.71639 -67.98635 37580 ft 539 kts 57°
2026-04-23 08:22 63.76175 -67.85254 37582 ft 539 kts 57°
2026-04-23 08:22 63.80724 -67.71757 37587 ft 539 kts 57°
2026-04-23 08:23 63.85270 -67.58179 37591 ft 541 kts 58°
2026-04-23 08:23 63.89795 -67.44584 37605 ft 544 kts 58°
2026-04-23 08:24 63.94354 -67.30810 37607 ft 545 kts 58°
2026-04-23 08:24 63.98905 -67.16975 37629 ft 545 kts 58°
2026-04-23 08:25 64.03417 -67.03174 37630 ft 545 kts 58°
2026-04-23 08:25 64.07941 -66.89249 37637 ft 545 kts 58°
2026-04-23 08:26 64.12452 -66.75274 37638 ft 546 kts 58°
2026-04-23 08:26 64.16965 -66.61208 37630 ft 547 kts 58°
2026-04-23 08:27 64.21460 -66.47110 37629 ft 547 kts 58°
2026-04-23 08:27 64.25915 -66.33050 37596 ft 547 kts 59°
2026-04-23 08:28 64.30398 -66.18809 37628 ft 549 kts 59°
2026-04-23 08:28 64.34881 -66.04478 37621 ft 551 kts 59°
2026-04-23 08:29 64.39358 -65.90081 37616 ft 551 kts 59°
2026-04-23 08:29 64.43796 -65.75718 37602 ft 551 kts 59°
2026-04-23 08:30 64.48246 -65.61216 37622 ft 551 kts 59°
2026-04-23 08:30 64.52676 -65.46684 37595 ft 551 kts 59°
2026-04-23 08:31 64.57097 -65.32083 37616 ft 552 kts 59°
2026-04-23 08:31 64.61483 -65.17514 37616 ft 553 kts 59°
2026-04-23 08:32 64.65890 -65.02786 37616 ft 553 kts 60°
2026-04-23 08:32 64.70282 -64.88002 37610 ft 554 kts 60°
2026-04-23 08:33 64.74640 -64.73237 37604 ft 554 kts 60°
2026-04-23 08:33 64.79009 -64.58334 37608 ft 555 kts 60°
2026-04-23 08:34 64.83371 -64.43356 37607 ft 555 kts 60°
2026-04-23 08:34 64.87730 -64.28292 37608 ft 555 kts 60°
2026-04-23 08:35 64.92032 -64.13318 37608 ft 555 kts 60°
2026-04-23 08:35 64.96351 -63.98187 37606 ft 555 kts 60°
2026-04-23 08:36 65.00657 -63.82992 37605 ft 556 kts 61°
2026-04-23 08:36 65.04952 -63.67752 37607 ft 556 kts 61°
2026-04-23 08:37 65.09204 -63.52549 37608 ft 556 kts 61°
2026-04-23 08:37 65.13470 -63.37179 37605 ft 556 kts 61°
2026-04-23 08:38 65.17716 -63.21781 37607 ft 556 kts 61°
2026-04-23 08:38 65.21919 -63.06432 37607 ft 557 kts 61°
2026-04-23 08:39 65.26144 -62.90899 37611 ft 557 kts 62°
2026-04-23 08:39 65.30354 -62.75315 37610 ft 557 kts 62°
2026-04-23 08:40 65.34518 -62.59792 37616 ft 557 kts 62°
2026-04-23 08:40 65.38690 -62.44129 37616 ft 557 kts 62°
2026-04-23 08:41 65.42841 -62.28435 37621 ft 557 kts 62°
2026-04-23 08:41 65.46983 -62.12661 37553 ft 557 kts 62°
2026-04-23 08:42 65.50411 -61.99520 37615 ft 557 kts 63°
2026-04-23 08:42 65.55194 -61.81056 37619 ft 558 kts 63°
2026-04-23 08:43 65.58602 -61.67804 37623 ft 558 kts 63°
2026-04-23 08:43 65.62691 -61.51798 37621 ft 559 kts 63°
2026-04-23 08:44 65.66768 -61.35724 37624 ft 559 kts 63°
2026-04-23 08:44 65.70797 -61.19725 37624 ft 558 kts 63°
2026-04-23 08:45 65.74838 -61.03557 37627 ft 558 kts 64°
2026-04-23 08:45 65.78835 -60.87448 37623 ft 559 kts 64°
2026-04-23 08:46 65.82845 -60.71163 37626 ft 560 kts 64°
2026-04-23 08:46 65.86840 -60.54823 37608 ft 560 kts 64°
2026-04-23 08:47 65.90827 -60.38388 37626 ft 562 kts 64°
2026-04-23 08:47 65.94778 -60.21984 37623 ft 562 kts 64°
2026-04-23 08:48 65.98729 -60.05390 37621 ft 561 kts 66°
2026-04-23 08:48 66.01683 -59.87841 37624 ft 553 kts 77°
2026-04-23 08:49 66.04145 -59.70076 37619 ft 552 kts 78°
2026-04-23 08:49 66.06529 -59.52087 37618 ft 551 kts 78°
2026-04-23 08:50 66.08894 -59.34083 37619 ft 551 kts 78°
2026-04-23 08:50 66.11237 -59.16187 37598 ft 551 kts 79°
2026-04-23 08:51 66.13580 -58.98141 37614 ft 551 kts 79°
2026-04-23 08:51 66.15891 -58.80149 37611 ft 552 kts 79°
2026-04-23 08:52 66.18195 -58.62013 37601 ft 552 kts 79°
2026-04-23 08:52 66.20477 -58.43850 37606 ft 551 kts 79°
2026-04-23 08:53 66.22722 -58.25784 37603 ft 551 kts 80°
2026-04-23 08:53 66.24959 -58.07570 37597 ft 551 kts 80°
2026-04-23 08:54 66.27175 -57.89321 37569 ft 552 kts 80°
2026-04-23 08:54 66.29369 -57.71052 37594 ft 550 kts 80°
2026-04-23 08:55 66.31521 -57.52925 37589 ft 549 kts 80°
2026-04-23 08:55 66.33663 -57.34660 37588 ft 549 kts 81°
2026-04-23 08:56 66.35782 -57.16380 37584 ft 549 kts 81°
2026-04-23 08:56 66.37866 -56.98193 37583 ft 549 kts 81°
2026-04-23 08:57 66.39945 -56.79820 37583 ft 550 kts 81°
2026-04-23 08:57 66.42008 -56.61379 37524 ft 550 kts 81°
2026-04-23 08:58 66.44033 -56.43077 37574 ft 547 kts 81°
2026-04-23 08:58 66.46039 -56.24710 37570 ft 546 kts 81°
2026-04-23 08:59 66.48021 -56.06308 37560 ft 546 kts 82°
2026-04-23 08:59 66.49968 -55.88016 37559 ft 546 kts 82°
2026-04-23 09:00 66.51909 -55.69545 37562 ft 548 kts 82°
2026-04-23 09:00 66.53832 -55.51013 37554 ft 549 kts 82°
2026-04-23 09:01 66.55724 -55.32552 37478 ft 548 kts 82°
2026-04-23 09:01 66.57601 -55.14007 37550 ft 545 kts 82°
2026-04-23 09:02 66.59447 -54.95520 37543 ft 544 kts 82°
2026-04-23 09:02 66.61254 -54.77156 37543 ft 544 kts 82°
2026-04-23 09:03 66.63052 -54.58632 37543 ft 545 kts 83°
2026-04-23 09:03 66.64833 -54.40036 37536 ft 545 kts 83°
2026-04-23 09:04 66.66594 -54.21421 37536 ft 545 kts 83°
2026-04-23 09:04 66.68319 -54.02912 37537 ft 545 kts 83°
2026-04-23 09:05 66.70032 -53.84270 37529 ft 543 kts 83°
2026-04-23 09:05 66.71718 -53.65675 37528 ft 541 kts 83°
2026-04-23 09:06 66.73369 -53.47171 37524 ft 543 kts 83°
2026-04-23 09:06 66.75015 -53.28463 37528 ft 544 kts 83°
2026-04-23 09:07 66.76641 -53.09711 37530 ft 544 kts 84°
2026-04-23 09:07 66.78230 -52.91090 37525 ft 544 kts 84°
2026-04-23 09:08 66.79809 -52.72324 37525 ft 543 kts 84°
2026-04-23 09:08 66.81363 -52.53555 37523 ft 543 kts 84°
2026-04-23 09:09 66.82886 -52.34869 37527 ft 542 kts 84°
2026-04-23 09:09 66.84394 -52.16069 37514 ft 542 kts 84°
2026-04-23 09:10 66.86615 -51.87852 37520 ft 542 kts 84°
2026-04-23 09:11 66.88056 -51.69146 37512 ft 542 kts 84°
2026-04-23 09:11 66.89485 -51.50283 37511 ft 541 kts 85°
2026-04-23 09:12 66.90891 -51.31399 37521 ft 543 kts 85°
2026-04-23 09:12 66.92278 -51.12450 37521 ft 542 kts 84°
2026-04-23 09:13 66.93630 -50.93686 37530 ft 541 kts 84°
2026-04-23 09:13 66.94968 -50.74794 37531 ft 540 kts 85°
2026-04-23 09:14 66.96281 -50.55875 37516 ft 540 kts 85°
2026-04-23 09:14 66.97560 -50.37105 37509 ft 540 kts 85°
2026-04-23 09:15 66.98828 -50.18165 37509 ft 540 kts 85°
2026-04-23 09:15 67.00074 -49.99182 37498 ft 541 kts 85°
2026-04-23 09:16 67.00893 -49.80264 37500 ft 536 kts 92°
2026-04-23 09:16 67.01314 -49.61223 37493 ft 535 kts 92°
2026-04-23 09:17 67.01749 -49.42189 37476 ft 536 kts 92°
2026-04-23 09:17 67.02238 -49.23133 37485 ft 536 kts 91°
2026-04-23 09:18 67.02733 -49.04199 37482 ft 536 kts 92°
2026-04-23 09:18 67.03212 -48.85114 37481 ft 537 kts 92°
2026-04-23 09:19 67.03665 -48.65985 37468 ft 537 kts 92°
2026-04-23 09:19 67.04091 -48.46850 37473 ft 536 kts 91°
2026-04-23 09:20 67.04493 -48.27905 37473 ft 536 kts 92°
2026-04-23 09:20 67.04876 -48.08801 37468 ft 536 kts 92°
2026-04-23 09:21 67.05234 -47.89693 37468 ft 536 kts 92°
2026-04-23 09:21 67.05569 -47.70612 37472 ft 536 kts 92°
2026-04-23 09:22 67.05879 -47.51610 37463 ft 537 kts 92°
2026-04-23 09:22 67.06170 -47.32439 37434 ft 537 kts 92°
2026-04-23 09:23 67.06437 -47.13328 37468 ft 534 kts 92°
2026-04-23 09:23 67.06681 -46.94420 37463 ft 533 kts 92°
2026-04-23 09:24 67.06901 -46.75399 37461 ft 533 kts 92°
2026-04-23 09:24 67.07098 -46.56388 37454 ft 533 kts 92°
2026-04-23 09:25 67.07271 -46.37466 37454 ft 533 kts 92°
2026-04-23 09:25 67.07424 -46.18408 37456 ft 534 kts 92°
2026-04-23 09:26 67.07553 -45.99347 37441 ft 532 kts 92°
2026-04-23 09:26 67.07660 -45.80544 37438 ft 529 kts 92°
2026-04-23 09:27 67.07745 -45.61674 37444 ft 528 kts 92°
2026-04-23 09:27 67.07806 -45.42786 37431 ft 528 kts 92°
2026-04-23 09:28 67.07845 -45.24065 37428 ft 528 kts 93°
2026-04-23 09:28 67.07861 -45.05176 37429 ft 529 kts 93°
2026-04-23 09:29 67.07856 -44.86274 37417 ft 529 kts 93°
2026-04-23 09:29 67.07829 -44.67496 37417 ft 527 kts 92°
2026-04-23 09:30 67.07780 -44.48729 37421 ft 524 kts 93°
2026-04-23 09:30 67.07710 -44.30128 37419 ft 524 kts 93°
2026-04-23 09:31 67.07616 -44.11400 37422 ft 524 kts 93°
2026-04-23 09:31 67.07501 -43.92686 37420 ft 524 kts 93°
2026-04-23 09:32 67.07365 -43.74099 37416 ft 524 kts 93°
2026-04-23 09:32 67.07207 -43.55377 37416 ft 524 kts 94°
2026-04-23 09:33 67.07025 -43.36683 37407 ft 522 kts 93°
2026-04-23 09:33 67.06860 -43.21237 37406 ft 520 kts 93°
2026-04-23 09:34 67.06605 -42.99678 37403 ft 520 kts 93°
2026-04-23 09:34 67.06404 -42.84252 37399 ft 520 kts 94°
2026-04-23 09:35 67.06142 -42.65690 37400 ft 520 kts 94°
2026-04-23 09:35 67.05858 -42.47140 37389 ft 521 kts 94°
2026-04-23 09:36 67.05554 -42.28671 37390 ft 522 kts 94°
2026-04-23 09:36 67.05228 -42.10120 37387 ft 517 kts 93°
2026-04-23 09:37 67.04884 -41.91796 37377 ft 514 kts 94°
2026-04-23 09:37 67.04520 -41.73486 37372 ft 513 kts 94°
2026-04-23 09:38 67.04137 -41.55322 37368 ft 513 kts 94°
2026-04-23 09:38 67.03731 -41.37051 37364 ft 513 kts 94°
2026-04-23 09:39 67.03304 -41.18767 37357 ft 513 kts 94°
2026-04-23 09:39 67.02859 -41.00613 37355 ft 514 kts 94°
2026-04-23 09:40 67.02391 -40.82413 37337 ft 508 kts 94°
2026-04-23 09:40 67.01909 -40.64420 37341 ft 505 kts 94°
2026-04-23 09:41 67.01407 -40.46445 37310 ft 505 kts 95°
2026-04-23 09:41 67.00888 -40.28601 37299 ft 506 kts 95°
2026-04-23 09:42 67.00344 -40.10649 37310 ft 505 kts 95°
2026-04-23 09:42 66.98878 -39.93123 37288 ft 503 kts 110°
2026-04-23 09:43 66.96436 -39.76478 37272 ft 503 kts 112°
2026-04-23 09:43 66.93803 -39.59921 37241 ft 502 kts 113°
2026-04-23 09:44 66.91151 -39.43403 37243 ft 502 kts 112°
2026-04-23 09:44 66.88528 -39.27055 37246 ft 501 kts 112°
2026-04-23 09:45 66.85873 -39.10578 37236 ft 503 kts 113°
2026-04-23 09:45 66.83207 -38.94153 37236 ft 501 kts 113°
2026-04-23 09:46 66.80544 -38.77906 37226 ft 501 kts 112°
2026-04-23 09:46 66.77851 -38.61617 37229 ft 498 kts 112°
2026-04-23 09:47 66.75161 -38.45481 37227 ft 496 kts 112°
2026-04-23 09:47 66.72471 -38.29471 37197 ft 498 kts 113°
2026-04-23 09:48 66.69750 -38.13408 37207 ft 495 kts 113°
2026-04-23 09:48 66.67022 -37.97442 37211 ft 495 kts 113°
2026-04-23 09:49 66.64294 -37.81596 37209 ft 496 kts 113°
2026-04-23 09:49 66.61530 -37.65676 37221 ft 495 kts 114°
2026-04-23 09:50 66.58752 -37.49803 37185 ft 495 kts 114°
2026-04-23 09:50 66.55972 -37.34045 37192 ft 496 kts 114°
2026-04-23 09:51 66.53163 -37.18245 37191 ft 494 kts 114°
2026-04-23 09:51 66.50338 -37.02491 37193 ft 493 kts 113°
2026-04-23 09:52 66.47538 -36.86999 37182 ft 488 kts 114°
2026-04-23 09:52 66.44726 -36.71545 37204 ft 487 kts 114°
2026-04-23 09:53 66.41917 -36.56226 37204 ft 487 kts 114°
2026-04-23 09:53 66.39073 -36.40832 37206 ft 488 kts 114°
2026-04-23 09:54 66.36208 -36.25447 37217 ft 488 kts 114°
2026-04-23 09:54 66.33347 -36.10216 37205 ft 487 kts 114°
2026-04-23 09:55 66.30467 -35.94981 37210 ft 485 kts 114°
2026-04-23 09:55 66.27579 -35.79808 37210 ft 485 kts 114°
2026-04-23 09:56 66.24675 -35.64668 37220 ft 485 kts 114°
2026-04-23 09:56 66.21776 -35.49666 37221 ft 485 kts 114°
2026-04-23 09:57 66.18841 -35.34592 37220 ft 485 kts 114°
2026-04-23 09:57 66.15895 -35.19589 37232 ft 483 kts 114°
2026-04-23 09:58 66.12967 -35.04759 37235 ft 482 kts 114°
2026-04-23 09:58 66.10007 -34.89877 37249 ft 482 kts 114°
2026-04-23 09:59 66.07030 -34.75015 37250 ft 483 kts 114°
2026-04-23 09:59 66.04057 -34.60283 37258 ft 483 kts 114°
2026-04-23 10:00 66.01048 -34.45487 37254 ft 483 kts 114°
2026-04-23 10:00 65.98026 -34.30735 37278 ft 483 kts 114°
2026-04-23 10:01 65.95014 -34.16113 37259 ft 483 kts 114°
2026-04-23 10:01 65.91968 -34.01430 37262 ft 483 kts 114°
2026-04-23 10:02 65.88904 -33.86767 37272 ft 483 kts 114°
2026-04-23 10:02 65.85828 -33.72156 37274 ft 483 kts 114°
2026-04-23 10:03 65.82758 -33.57673 37285 ft 482 kts 114°
2026-04-23 10:03 65.79665 -33.43187 37282 ft 479 kts 114°
2026-04-23 10:04 65.76576 -33.28801 37290 ft 479 kts 114°
2026-04-23 10:04 65.73489 -33.14526 37290 ft 479 kts 114°
2026-04-23 10:05 65.70371 -33.00204 37293 ft 479 kts 114°
2026-04-23 10:05 65.67235 -32.85898 37297 ft 479 kts 114°
2026-04-23 10:06 65.64113 -32.71759 37300 ft 477 kts 114°
2026-04-23 10:06 65.60970 -32.57610 37303 ft 476 kts 114°
2026-04-23 10:07 65.57820 -32.43517 37304 ft 476 kts 114°
2026-04-23 10:07 65.54674 -32.29539 37313 ft 476 kts 114°
2026-04-23 10:08 65.51501 -32.15529 37311 ft 476 kts 115°
2026-04-23 10:08 65.48308 -32.01528 37345 ft 476 kts 115°
2026-04-23 10:09 65.43527 -31.80734 37317 ft 474 kts 115°
2026-04-23 10:09 65.40324 -31.66906 37325 ft 473 kts 115°
2026-04-23 10:10 65.37101 -31.53081 37328 ft 473 kts 115°
2026-04-23 10:10 65.33893 -31.39411 37327 ft 473 kts 115°
2026-04-23 10:11 65.30651 -31.25683 37333 ft 473 kts 115°
2026-04-23 10:11 65.27394 -31.11980 37332 ft 472 kts 115°
2026-04-23 10:12 65.24134 -30.98353 37342 ft 472 kts 115°
2026-04-23 10:12 65.20889 -30.84863 37341 ft 472 kts 115°
2026-04-23 10:13 65.17604 -30.71295 37350 ft 472 kts 115°
2026-04-23 10:13 65.14306 -30.57758 37349 ft 472 kts 116°
2026-04-23 10:14 65.11022 -30.44359 37350 ft 472 kts 116°
2026-04-23 10:14 65.07704 -30.30905 37347 ft 472 kts 116°
2026-04-23 10:15 65.04377 -30.17497 37360 ft 471 kts 116°
2026-04-23 10:15 65.01059 -30.04206 37364 ft 471 kts 116°
2026-04-23 10:16 64.97744 -29.90812 37361 ft 471 kts 115°
2026-04-23 10:16 64.94537 -29.77329 37355 ft 470 kts 115°
2026-04-23 10:17 64.91325 -29.63853 37354 ft 471 kts 115°
2026-04-23 10:17 64.88109 -29.50535 37361 ft 471 kts 115°
2026-04-23 10:18 64.84844 -29.37151 37365 ft 471 kts 116°
2026-04-23 10:18 64.81566 -29.23803 37370 ft 471 kts 116°
2026-04-23 10:19 64.78299 -29.10580 37388 ft 471 kts 116°
2026-04-23 10:19 64.74998 -28.97294 37379 ft 471 kts 116°
2026-04-23 10:20 64.71684 -28.84038 37393 ft 471 kts 116°
2026-04-23 10:20 64.68384 -28.70919 37384 ft 471 kts 116°
2026-04-23 10:21 64.65051 -28.57742 37391 ft 471 kts 116°
2026-04-23 10:21 64.61705 -28.44594 37389 ft 471 kts 116°
2026-04-23 10:22 64.58346 -28.31476 37390 ft 471 kts 116°
2026-04-23 10:22 64.54996 -28.18467 37397 ft 471 kts 116°
2026-04-23 10:23 64.51611 -28.05404 37400 ft 471 kts 116°
2026-04-23 10:23 64.48215 -27.92369 37403 ft 471 kts 116°
2026-04-23 10:24 64.44835 -27.79471 37403 ft 471 kts 117°
2026-04-23 10:24 64.41417 -27.66507 37409 ft 471 kts 117°
2026-04-23 10:25 64.38566 -27.55750 37411 ft 471 kts 117°
2026-04-23 10:25 64.35126 -27.42839 37408 ft 471 kts 117°
2026-04-23 10:26 64.31676 -27.29970 37414 ft 471 kts 117°
2026-04-23 10:26 64.28241 -27.17227 37419 ft 470 kts 117°
2026-04-23 10:27 64.24771 -27.04428 37427 ft 471 kts 117°
2026-04-23 10:27 64.21289 -26.91657 37424 ft 471 kts 117°
2026-04-23 10:28 64.17817 -26.78994 37412 ft 471 kts 117°
2026-04-23 10:28 64.14311 -26.66280 37430 ft 471 kts 117°
2026-04-23 10:29 64.10789 -26.53581 37428 ft 472 kts 117°
2026-04-23 10:29 64.07278 -26.40992 37428 ft 472 kts 118°
2026-04-23 10:30 64.03727 -26.28334 37426 ft 472 kts 118°
2026-04-23 10:30 64.00172 -26.15733 37431 ft 472 kts 118°
2026-04-23 10:31 63.96622 -26.03218 37430 ft 472 kts 118°
2026-04-23 10:31 63.93039 -25.90657 37466 ft 472 kts 118°
2026-04-23 10:32 63.89468 -25.78204 37435 ft 473 kts 118°
2026-04-23 10:32 63.85858 -25.65686 37435 ft 474 kts 119°
2026-04-23 10:33 63.82226 -25.53165 37438 ft 474 kts 119°
2026-04-23 10:33 63.78608 -25.40764 37438 ft 474 kts 119°
2026-04-23 10:34 63.74954 -25.28306 37441 ft 474 kts 119°
2026-04-23 10:34 63.71293 -25.15888 37448 ft 475 kts 120°
2026-04-23 10:35 63.67638 -25.03561 37441 ft 475 kts 120°
2026-04-23 10:35 63.63948 -24.91188 37442 ft 475 kts 120°
2026-04-23 10:36 63.60249 -24.78849 37444 ft 475 kts 120°
2026-04-23 10:36 63.56561 -24.66614 37444 ft 475 kts 120°
2026-04-23 10:37 63.52837 -24.54324 37440 ft 475 kts 120°
2026-04-23 10:37 63.49102 -24.42065 37450 ft 476 kts 121°
2026-04-23 10:38 63.45378 -24.29909 37446 ft 476 kts 121°
2026-04-23 10:38 63.41617 -24.17700 37446 ft 476 kts 121°
2026-04-23 10:39 63.37851 -24.05538 37447 ft 476 kts 121°
2026-04-23 10:39 63.34071 -23.93399 37449 ft 476 kts 121°
2026-04-23 10:40 63.30305 -23.81367 37471 ft 476 kts 122°
2026-04-23 10:40 63.26503 -23.69284 37446 ft 476 kts 122°
2026-04-23 10:41 63.22689 -23.57228 37453 ft 476 kts 122°
2026-04-23 10:41 63.18889 -23.45279 37453 ft 476 kts 122°
2026-04-23 10:42 63.15054 -23.33282 37453 ft 476 kts 122°
2026-04-23 10:42 63.11208 -23.21313 37441 ft 477 kts 123°
2026-04-23 10:43 63.07375 -23.09446 37443 ft 477 kts 123°
2026-04-23 10:43 63.03496 -22.97503 37444 ft 479 kts 123°
2026-04-23 10:44 62.99598 -22.85568 37464 ft 479 kts 124°
2026-04-23 10:44 62.95716 -22.73741 37458 ft 479 kts 124°
2026-04-23 10:45 62.91801 -22.61875 37442 ft 479 kts 124°
2026-04-23 10:45 62.87873 -22.50031 37441 ft 479 kts 124°
2026-04-23 10:46 62.83941 -22.38238 37439 ft 479 kts 124°
2026-04-23 10:46 62.80017 -22.26526 37464 ft 479 kts 124°
2026-04-23 10:47 62.76055 -22.14766 37466 ft 479 kts 124°
2026-04-23 10:47 62.72088 -22.03047 37446 ft 479 kts 124°
2026-04-23 10:48 62.68136 -21.91433 37445 ft 480 kts 125°
2026-04-23 10:48 62.64145 -21.79764 37453 ft 480 kts 125°
2026-04-23 10:49 62.60139 -21.68113 37445 ft 481 kts 125°
2026-04-23 10:49 62.56111 -21.56458 37451 ft 482 kts 126°
2026-04-23 10:50 62.52104 -21.44922 37448 ft 482 kts 126°
2026-04-23 10:50 62.48057 -21.33330 37449 ft 482 kts 126°
2026-04-23 10:51 62.44005 -21.21781 37451 ft 482 kts 126°
2026-04-23 10:51 62.39963 -21.10317 37453 ft 483 kts 126°
2026-04-23 10:52 62.35873 -20.98779 37452 ft 483 kts 126°
2026-04-23 10:52 62.31777 -20.87281 37452 ft 484 kts 126°
2026-04-23 10:53 62.27697 -20.75885 37452 ft 484 kts 127°
2026-04-23 10:53 62.23582 -20.64447 37453 ft 484 kts 127°
2026-04-23 10:54 62.19453 -20.53029 37455 ft 484 kts 127°
2026-04-23 10:54 62.15308 -20.41625 37452 ft 485 kts 127°
2026-04-23 10:55 62.11170 -20.30298 37453 ft 485 kts 127°
2026-04-23 10:55 62.07000 -20.18938 37454 ft 485 kts 128°
2026-04-23 10:56 62.02826 -20.07622 37454 ft 485 kts 128°
2026-04-23 10:56 61.98685 -19.96381 37459 ft 485 kts 126°
2026-04-23 10:57 61.94837 -19.84552 37452 ft 486 kts 123°
2026-04-23 10:57 61.91096 -19.72537 37455 ft 487 kts 123°
2026-04-23 10:58 61.87323 -19.60675 37453 ft 487 kts 124°
2026-04-23 10:58 61.83475 -19.48830 37456 ft 487 kts 125°
2026-04-23 10:59 61.79629 -19.37109 37457 ft 487 kts 125°
2026-04-23 10:59 61.75748 -19.25339 37463 ft 487 kts 125°
2026-04-23 11:00 61.71854 -19.13578 37464 ft 488 kts 126°
2026-04-23 11:00 61.67955 -19.01858 37468 ft 488 kts 126°
2026-04-23 11:01 61.64070 -18.90242 37465 ft 488 kts 126°
2026-04-23 11:01 61.60146 -18.78568 37465 ft 488 kts 126°
2026-04-23 11:02 61.56215 -18.66931 37462 ft 488 kts 126°
2026-04-23 11:02 61.52272 -18.55316 37466 ft 488 kts 127°
2026-04-23 11:03 61.48340 -18.43793 37469 ft 489 kts 127°
2026-04-23 11:03 61.44369 -18.32217 37466 ft 489 kts 127°
2026-04-23 11:04 61.40419 -18.20756 37466 ft 489 kts 127°
2026-04-23 11:04 61.36429 -18.09238 37466 ft 489 kts 127°
2026-04-23 11:05 61.32431 -17.97752 37464 ft 489 kts 128°
2026-04-23 11:05 61.28451 -17.86373 37469 ft 489 kts 128°
2026-04-23 11:06 61.22422 -17.69249 37467 ft 489 kts 128°
2026-04-23 11:07 61.18391 -17.57864 37465 ft 489 kts 128°
2026-04-23 11:07 61.14378 -17.46590 37468 ft 488 kts 128°
2026-04-23 11:08 61.10329 -17.35273 37473 ft 488 kts 129°
2026-04-23 11:08 61.06273 -17.23988 37470 ft 488 kts 129°
2026-04-23 11:09 61.02240 -17.12820 37458 ft 488 kts 129°
2026-04-23 11:09 60.98170 -17.01607 37456 ft 488 kts 129°
2026-04-23 11:10 60.94092 -16.90428 37475 ft 488 kts 129°
2026-04-23 11:10 60.90031 -16.79345 37476 ft 488 kts 129°
2026-04-23 11:11 60.85935 -16.68218 37469 ft 487 kts 129°
2026-04-23 11:11 60.81868 -16.57225 37470 ft 486 kts 130°
2026-04-23 11:12 60.77771 -16.46205 37471 ft 485 kts 130°
2026-04-23 11:12 60.73662 -16.35206 37472 ft 485 kts 130°
2026-04-23 11:13 60.69575 -16.24317 37470 ft 485 kts 130°
2026-04-23 11:13 60.65454 -16.13389 37468 ft 485 kts 130°
2026-04-23 11:14 60.62021 -16.04323 37471 ft 485 kts 130°
2026-04-23 11:14 60.57881 -15.93439 37470 ft 485 kts 130°
2026-04-23 11:15 60.53065 -15.80838 37473 ft 485 kts 130°
2026-04-23 11:15 60.49605 -15.71831 37460 ft 485 kts 130°
2026-04-23 11:16 60.45445 -15.61044 37472 ft 484 kts 131°
2026-04-23 11:16 60.41281 -15.50300 37470 ft 484 kts 131°
2026-04-23 11:17 60.37143 -15.39669 37478 ft 483 kts 131°
2026-04-23 11:17 60.32973 -15.29007 37470 ft 483 kts 131°
2026-04-23 11:18 60.28793 -15.18370 37474 ft 483 kts 131°
2026-04-23 11:18 60.24606 -15.07760 37472 ft 483 kts 131°
2026-04-23 11:19 60.20413 -14.97186 37468 ft 483 kts 131°
2026-04-23 11:19 60.16238 -14.86705 37471 ft 483 kts 131°
2026-04-23 11:20 60.12023 -14.76169 37468 ft 484 kts 131°
2026-04-23 11:20 60.07794 -14.65648 37474 ft 483 kts 131°
2026-04-23 11:21 60.03561 -14.55164 37473 ft 483 kts 131°
2026-04-23 11:21 59.99350 -14.44782 37473 ft 483 kts 131°
2026-04-23 11:22 59.95105 -14.34361 37471 ft 484 kts 132°
2026-04-23 11:22 59.90846 -14.23956 37473 ft 484 kts 132°
2026-04-23 11:23 59.86571 -14.13557 37468 ft 484 kts 132°
2026-04-23 11:23 59.82319 -14.03259 37473 ft 484 kts 132°
2026-04-23 11:24 59.78026 -13.92910 37472 ft 484 kts 132°
2026-04-23 11:24 59.73726 -13.82589 37470 ft 484 kts 132°
2026-04-23 11:25 59.69448 -13.72364 37475 ft 485 kts 133°
2026-04-23 11:25 59.65129 -13.62090 37470 ft 485 kts 133°
2026-04-23 11:26 59.60800 -13.51836 37467 ft 485 kts 133°
2026-04-23 11:26 59.56497 -13.41689 37467 ft 485 kts 133°
2026-04-23 11:27 59.52157 -13.31499 37468 ft 485 kts 133°
2026-04-23 11:27 59.47808 -13.21334 37460 ft 485 kts 133°
2026-04-23 11:28 59.43456 -13.11203 37463 ft 485 kts 133°
2026-04-23 11:28 59.39124 -13.01167 37452 ft 485 kts 133°
2026-04-23 11:29 59.34745 -12.91065 37465 ft 485 kts 134°
2026-04-23 11:29 59.30391 -12.81064 37463 ft 485 kts 134°
2026-04-23 11:30 59.26005 -12.71031 37446 ft 485 kts 134°
2026-04-23 11:30 59.21609 -12.61020 37463 ft 485 kts 134°
2026-04-23 11:31 59.17196 -12.51014 37462 ft 485 kts 134°
2026-04-23 11:31 59.12810 -12.41111 37461 ft 485 kts 134°
2026-04-23 11:32 59.08389 -12.31173 37465 ft 485 kts 134°
2026-04-23 11:32 59.03958 -12.21255 37463 ft 485 kts 134°
2026-04-23 11:33 58.99548 -12.11425 37457 ft 486 kts 134°
2026-04-23 11:33 58.95090 -12.01534 37465 ft 487 kts 134°
2026-04-23 11:34 58.90617 -11.91649 37463 ft 487 kts 135°
2026-04-23 11:34 58.86138 -11.81793 37460 ft 487 kts 135°
2026-04-23 11:35 58.81684 -11.72033 37457 ft 487 kts 135°
2026-04-23 11:35 58.77195 -11.62236 37463 ft 487 kts 135°
2026-04-23 11:36 58.72699 -11.52468 37464 ft 487 kts 135°
2026-04-23 11:36 58.68198 -11.42731 37462 ft 486 kts 135°
2026-04-23 11:37 58.63715 -11.33073 37458 ft 487 kts 135°
2026-04-23 11:37 58.59192 -11.23370 37462 ft 488 kts 135°
2026-04-23 11:38 58.54659 -11.13685 37449 ft 488 kts 135°
2026-04-23 11:38 58.50126 -11.04038 37460 ft 486 kts 136°
2026-04-23 11:39 58.45619 -10.94489 37464 ft 486 kts 136°
2026-04-23 11:39 58.41077 -10.84906 37467 ft 486 kts 136°
2026-04-23 11:40 58.36562 -10.75420 37465 ft 486 kts 136°
2026-04-23 11:40 58.32010 -10.65894 37471 ft 486 kts 136°
2026-04-23 11:41 58.27450 -10.56392 37469 ft 485 kts 136°
2026-04-23 11:41 58.22881 -10.46910 37467 ft 487 kts 136°
2026-04-23 11:42 58.18318 -10.37480 37477 ft 487 kts 136°
2026-04-23 11:42 58.13727 -10.28028 37470 ft 487 kts 136°
2026-04-23 11:43 58.09121 -10.18583 37473 ft 487 kts 136°
2026-04-23 11:43 58.04545 -10.09239 37474 ft 486 kts 136°
2026-04-23 11:44 58.00269 -9.99303 37472 ft 491 kts 125°
2026-04-23 11:44 57.97268 -9.87624 37472 ft 496 kts 116°
2026-04-23 11:45 57.94680 -9.75622 37465 ft 498 kts 115°
2026-04-23 11:45 57.92110 -9.63486 37481 ft 498 kts 115°
2026-04-23 11:46 57.89257 -9.51640 37472 ft 493 kts 125°
2026-04-23 11:46 57.85135 -9.41588 37464 ft 487 kts 135°
2026-04-23 11:47 57.80571 -9.32221 37480 ft 486 kts 137°
2026-04-23 11:47 57.75943 -9.22986 37484 ft 485 kts 137°
2026-04-23 11:48 57.71319 -9.13742 37480 ft 485 kts 136°
2026-04-23 11:48 57.66737 -9.04557 37475 ft 486 kts 136°
2026-04-23 11:49 57.62117 -8.95315 37483 ft 486 kts 137°
2026-04-23 11:49 57.57486 -8.86089 37485 ft 486 kts 136°
2026-04-23 11:50 57.52884 -8.76953 37485 ft 485 kts 136°
2026-04-23 11:50 57.48249 -8.67791 37481 ft 485 kts 136°
2026-04-23 11:51 57.43641 -8.58723 37487 ft 485 kts 136°
2026-04-23 11:51 57.38996 -8.49614 37487 ft 485 kts 136°
2026-04-23 11:52 57.34339 -8.40520 37482 ft 486 kts 136°
2026-04-23 11:52 57.29677 -8.31453 37486 ft 486 kts 136°
2026-04-23 11:53 57.25033 -8.22453 37491 ft 486 kts 136°
2026-04-23 11:53 57.20353 -8.13419 37484 ft 486 kts 136°
2026-04-23 11:54 57.15694 -8.04462 37490 ft 486 kts 136°
2026-04-23 11:54 57.10998 -7.95471 37486 ft 486 kts 136°
2026-04-23 11:55 57.06295 -7.86499 37489 ft 486 kts 136°
2026-04-23 11:55 57.01620 -7.77614 37492 ft 486 kts 136°
2026-04-23 11:56 56.96903 -7.68684 37490 ft 486 kts 136°
2026-04-23 11:56 56.92186 -7.59792 37491 ft 486 kts 136°
2026-04-23 11:57 56.87456 -7.50909 37484 ft 487 kts 136°
2026-04-23 11:57 56.82749 -7.42102 37489 ft 486 kts 136°
2026-04-23 11:58 56.78006 -7.33259 37493 ft 486 kts 136°
2026-04-23 11:58 56.73259 -7.24444 37490 ft 486 kts 136°
2026-04-23 11:59 56.68538 -7.15712 37487 ft 486 kts 136°
2026-04-23 11:59 56.63783 -7.06950 37470 ft 486 kts 136°
2026-04-23 12:00 56.59017 -6.98204 37481 ft 486 kts 136°
2026-04-23 12:00 56.54251 -6.89488 37478 ft 486 kts 136°
2026-04-23 12:01 56.49472 -6.80782 37481 ft 486 kts 136°
2026-04-23 12:01 56.44725 -6.72165 37481 ft 486 kts 136°
2026-04-23 12:02 56.39939 -6.63512 37484 ft 486 kts 136°
2026-04-23 12:02 56.35177 -6.54935 37501 ft 485 kts 136°
2026-04-23 12:03 56.30389 -6.46344 37504 ft 485 kts 136°
2026-04-23 12:03 56.25589 -6.37763 37504 ft 485 kts 136°
2026-04-23 12:04 56.20821 -6.29270 37500 ft 485 kts 136°
2026-04-23 12:04 56.16013 -6.20737 37500 ft 485 kts 137°
2026-04-23 12:05 56.12014 -6.13665 37502 ft 485 kts 136°
2026-04-23 12:05 56.07194 -6.05170 37499 ft 485 kts 137°
2026-04-23 12:06 56.02376 -5.96711 37497 ft 485 kts 137°
2026-04-23 12:06 55.95168 -5.84109 37497 ft 485 kts 137°
2026-04-23 12:07 55.90333 -5.75695 37495 ft 485 kts 137°
2026-04-23 12:07 55.85496 -5.67311 37499 ft 485 kts 138°
2026-04-23 12:08 55.80673 -5.58986 37497 ft 486 kts 137°
2026-04-23 12:08 55.75810 -5.50617 37501 ft 486 kts 137°
2026-04-23 12:09 55.70936 -5.42259 37497 ft 486 kts 137°
2026-04-23 12:09 55.66095 -5.33989 37494 ft 486 kts 137°
2026-04-23 12:10 55.61219 -5.25689 37502 ft 486 kts 137°
2026-04-23 12:10 55.56332 -5.17398 37499 ft 486 kts 138°
2026-04-23 12:11 55.51436 -5.09124 37497 ft 486 kts 137°
2026-04-23 12:11 55.46567 -5.00925 37496 ft 486 kts 138°
2026-04-23 12:12 55.41653 -4.92686 37493 ft 488 kts 137°
2026-04-23 12:12 55.36727 -4.84452 37489 ft 488 kts 137°
2026-04-23 12:13 55.31825 -4.76286 37487 ft 488 kts 137°
2026-04-23 12:13 55.26891 -4.68097 37487 ft 488 kts 137°
2026-04-23 12:14 55.21944 -4.59916 37485 ft 488 kts 137°
2026-04-23 12:14 55.16996 -4.51763 37487 ft 488 kts 137°
2026-04-23 12:15 55.12062 -4.43661 37489 ft 490 kts 138°
2026-04-23 12:15 55.07073 -4.35501 37491 ft 491 kts 137°
2026-04-23 12:16 55.02076 -4.27355 37492 ft 490 kts 137°
2026-04-23 12:16 54.97121 -4.19304 37493 ft 491 kts 137°
2026-04-23 12:17 54.92114 -4.11201 37494 ft 491 kts 137°
2026-04-23 12:17 54.87101 -4.03115 37492 ft 490 kts 137°
2026-04-23 12:18 54.82127 -3.95119 37490 ft 489 kts 137°
2026-04-23 12:18 54.77113 -3.87091 37498 ft 491 kts 137°
2026-04-23 12:19 54.72104 -3.79098 37497 ft 489 kts 137°
2026-04-23 12:19 54.67083 -3.71112 37501 ft 489 kts 137°
2026-04-23 12:20 54.62091 -3.63200 37498 ft 489 kts 137°
2026-04-23 12:20 54.57069 -3.55271 37495 ft 489 kts 137°
2026-04-23 12:21 54.52040 -3.47357 37496 ft 489 kts 137°
2026-04-23 12:21 54.47039 -3.39515 37482 ft 489 kts 137°
2026-04-23 12:22 54.41995 -3.31633 37486 ft 490 kts 137°
2026-04-23 12:22 54.36933 -3.23750 37485 ft 490 kts 137°
2026-04-23 12:23 54.31898 -3.15936 37484 ft 491 kts 137°
2026-04-23 12:23 54.26817 -3.08078 37480 ft 492 kts 137°
2026-04-23 12:24 54.21723 -3.00227 37480 ft 492 kts 137°
2026-04-23 12:24 54.16368 -2.93076 37482 ft 493 kts 149°
2026-04-23 12:25 54.10193 -2.87957 37480 ft 494 kts 156°
2026-04-23 12:25 54.03853 -2.83361 37480 ft 495 kts 157°
2026-04-23 12:26 53.97377 -2.79327 37476 ft 496 kts 162°
2026-04-23 12:26 53.90827 -2.75824 37470 ft 496 kts 162°
2026-04-23 12:27 53.84226 -2.72369 37475 ft 496 kts 163°
2026-04-23 12:27 53.77616 -2.68909 37482 ft 497 kts 162°
2026-04-23 12:28 53.71052 -2.65468 37480 ft 496 kts 162°
2026-04-23 12:28 53.64441 -2.62009 37478 ft 497 kts 163°
2026-04-23 12:29 53.57830 -2.58562 37481 ft 497 kts 162°
2026-04-23 12:29 53.51255 -2.55145 37477 ft 496 kts 162°
2026-04-23 12:30 53.44653 -2.51725 37478 ft 495 kts 162°
2026-04-23 12:30 53.38041 -2.48311 37483 ft 497 kts 162°
2026-04-23 12:31 53.31468 -2.44927 37486 ft 497 kts 162°
2026-04-23 12:31 53.24854 -2.41534 37478 ft 496 kts 162°
2026-04-23 12:32 53.18237 -2.38149 37485 ft 498 kts 162°
2026-04-23 12:32 53.11646 -2.34791 37484 ft 498 kts 162°
2026-04-23 12:33 53.05009 -2.31420 37483 ft 497 kts 162°
2026-04-23 12:33 52.98380 -2.28066 37483 ft 498 kts 163°
2026-04-23 12:34 52.91771 -2.24730 37476 ft 500 kts 162°
2026-04-23 12:34 52.85101 -2.21363 37461 ft 498 kts 162°
2026-04-23 12:35 52.78447 -2.18018 37477 ft 500 kts 162°
2026-04-23 12:35 52.71809 -2.14695 37475 ft 501 kts 162°
2026-04-23 12:36 52.65138 -2.11344 37482 ft 499 kts 163°
2026-04-23 12:36 52.58521 -2.08025 37477 ft 500 kts 163°
2026-04-23 12:37 52.51852 -2.04693 37471 ft 501 kts 163°
2026-04-23 12:37 52.45193 -2.01358 37459 ft 500 kts 163°
2026-04-23 12:38 52.38529 -1.98020 37469 ft 500 kts 162°
2026-04-23 12:38 52.31849 -1.94748 37460 ft 500 kts 163°
2026-04-23 12:39 52.25190 -1.91499 37456 ft 499 kts 163°
2026-04-23 12:39 52.18559 -1.88262 37457 ft 501 kts 163°
2026-04-23 12:40 52.11853 -1.85008 37462 ft 503 kts 163°
2026-04-23 12:40 52.05141 -1.81750 37451 ft 502 kts 163°
2026-04-23 12:41 51.98486 -1.78518 37448 ft 502 kts 163°
2026-04-23 12:41 51.91776 -1.75263 37453 ft 504 kts 163°
2026-04-23 12:42 51.85051 -1.72003 37450 ft 503 kts 163°
2026-04-23 12:42 51.78395 -1.68782 37457 ft 502 kts 163°
2026-04-23 12:43 51.71673 -1.65514 37453 ft 505 kts 163°
2026-04-23 12:43 51.64933 -1.62239 37457 ft 505 kts 163°
2026-04-23 12:44 51.58259 -1.59004 37439 ft 504 kts 163°
2026-04-23 12:44 51.51524 -1.55737 37435 ft 506 kts 163°
2026-04-23 12:45 51.44780 -1.52457 37429 ft 506 kts 163°
2026-04-23 12:45 51.38088 -1.49206 37420 ft 505 kts 163°
2026-04-23 12:46 51.31354 -1.45944 37404 ft 506 kts 163°
2026-04-23 12:46 51.24605 -1.42647 37416 ft 506 kts 163°
2026-04-23 12:47 51.17868 -1.39414 37401 ft 504 kts 163°
2026-04-23 12:47 51.11164 -1.36221 37402 ft 506 kts 163°
2026-04-23 12:48 51.04402 -1.33008 37401 ft 506 kts 163°
2026-04-23 12:48 50.97651 -1.29806 37400 ft 504 kts 163°
2026-04-23 12:49 50.91086 -1.26702 37401 ft 506 kts 163°
2026-04-23 12:49 50.84539 -1.23610 37400 ft 507 kts 163°
2026-04-23 12:50 50.77706 -1.21029 37403 ft 505 kts 178°
2026-04-23 12:50 50.74218 -1.21447 37401 ft 501 kts 194°
2026-04-23 12:50 50.70946 -1.23258 37397 ft 498 kts 210°
2026-04-23 12:51 50.68100 -1.26335 37398 ft 493 kts 225°
2026-04-23 12:51 50.65918 -1.30379 37399 ft 488 kts 240°
2026-04-23 12:51 50.64490 -1.35188 37399 ft 483 kts 256°
2026-04-23 12:51 50.63940 -1.40359 37377 ft 477 kts 272°
2026-04-23 12:52 50.64296 -1.45493 37396 ft 469 kts 287°
2026-04-23 12:52 50.65185 -1.50420 37382 ft 463 kts 290°
2026-04-23 12:52 50.67318 -1.58176 37376 ft 464 kts 302°
2026-04-23 12:53 50.71399 -1.66020 37370 ft 462 kts 320°
2026-04-23 12:53 50.76872 -1.71241 37369 ft 461 kts 339°
2026-04-23 12:54 50.83102 -1.73265 37361 ft 464 kts 359°
2026-04-23 12:54 50.86332 -1.72947 37122 ft 464 kts
2026-04-23 12:54 50.89544 -1.72353 36877 ft 466 kts
2026-04-23 12:55 50.92786 -1.71723 36606 ft 467 kts
2026-04-23 12:55 50.95972 -1.71108 36368 ft 467 kts
2026-04-23 12:55 50.99201 -1.70488 36131 ft 466 kts